Time,TemperatureF,DewpointF,PressureIn,WindDirection,WindDirectionDegrees,WindSpeedMPH,WindSpeedGustMPH,Humidity,HourlyPrecipIn,Conditions,Clouds,dailyrainin,SoftwareType,DateUTC
2013-06-23 00:00:00,81.7,68.8,28.79,South,178,0.0,0.0,65,0.00,,,0.00,VWS V14.01,2013-06-23 05:00:00,
2013-06-23 00:01:00,81.7,68.8,28.79,SSE,165,0.0,0.0,65,0.00,,,0.00,VWS V14.01,2013-06-23 05:01:00,
2013-06-23 00:02:00,81.7,68.8,28.79,SSE,161,0.0,0.0,65,0.00,,,0.00,VWS V14.01,2013-06-23 05:02:00,
2013-06-23 00:03:00,81.5,68.6,28.79,SSE,161,0.0,0.0,65,0.00,,CLR,0.00,VWS V14.01,2013-06-23 05:03:00,
2013-06-23 00:04:00,81.5,68.6,28.79,SSE,157,0.0,0.0,65,0.00,,,0.00,VWS V14.01,2013-06-23 05:04:00,
2013-06-23 00:05:00,81.5,68.6,28.79,ESE,106,0.0,0.0,65,0.00,,,0.00,VWS V14.01,2013-06-23 05:05:00,
2013-06-23 00:06:00,81.5,68.6,28.79,SSE,153,0.0,0.0,65,0.00,,,0.00,VWS V14.01,2013-06-23 05:06:00,
2013-06-23 00:07:00,81.5,68.6,28.79,SSE,165,2.2,2.2,65,0.00,,,0.00,VWS V14.01,2013-06-23 05:07:00,
2013-06-23 00:08:00,81.3,68.4,28.79,SE,140,0.0,2.2,65,0.00,,CLR,0.00,VWS V14.01,2013-06-23 05:08:00,
2013-06-23 00:09:00,81.3,68.4,28.79,SE,145,0.0,0.0,65,0.00,,,0.00,VWS V14.01,2013-06-23 05:09:00,
2013-06-23 00:10:00,81.3,68.4,28.79,SSW,200,0.0,0.0,65,0.00,,,0.00,VWS V14.01,2013-06-23 05:10:00,
2013-06-23 00:11:00,81.3,68.4,28.79,SSW,203,0.0,0.0,65,0.00,,,0.00,VWS V14.01,2013-06-23 05:11:00,
2013-06-23 00:12:00,81.3,68.4,28.79,SE,146,0.0,0.0,65,0.00,,,0.00,VWS V14.01,2013-06-23 05:12:00,
2013-06-23 00:13:00,81.3,68.4,28.79,SSE,163,0.0,2.2,65,0.00,,CLR,0.00,VWS V14.01,2013-06-23 05:13:00,
2013-06-23 00:14:00,81.3,68.4,28.79,SSE,150,0.0,0.0,65,0.00,,,0.00,VWS V14.01,2013-06-23 05:14:00,
2013-06-23 00:15:00,81.3,68.4,28.79,South,185,0.0,0.0,65,0.00,,,0.00,VWS V14.01,2013-06-23 05:15:00,
2013-06-23 00:16:00,81.1,68.3,28.79,ESE,110,0.0,0.0,65,0.00,,,0.00,VWS V14.01,2013-06-23 05:16:00,
2013-06-23 00:17:00,81.1,68.3,28.79,SSE,157,2.7,2.7,65,0.00,,,0.00,VWS V14.01,2013-06-23 05:17:00,
2013-06-23 00:18:00,81.1,68.3,28.79,South,187,0.0,2.7,65,0.00,,CLR,0.00,VWS V14.01,2013-06-23 05:18:00,
2013-06-23 00:19:00,81.1,68.3,28.79,SE,127,0.0,2.7,65,0.00,,,0.00,VWS V14.01,2013-06-23 05:19:00,
2013-06-23 00:20:00,81.1,68.3,28.79,SSE,159,0.0,0.0,65,0.00,,,0.00,VWS V14.01,2013-06-23 05:20:00,
2013-06-23 00:21:00,81.1,68.3,28.79,ESE,120,0.0,0.0,65,0.00,,,0.00,VWS V14.01,2013-06-23 05:21:00,
2013-06-23 00:22:00,81.1,68.3,28.79,SE,142,0.0,0.0,65,0.00,,,0.00,VWS V14.01,2013-06-23 05:22:00,
2013-06-23 00:23:00,81.1,68.3,28.79,South,169,0.0,0.0,65,0.00,,CLR,0.00,VWS V14.01,2013-06-23 05:23:00,
2013-06-23 00:24:00,81.1,68.3,28.79,SE,142,0.0,0.0,65,0.00,,,0.00,VWS V14.01,2013-06-23 05:24:00,
2013-06-23 00:25:00,81.0,68.1,28.79,SSE,151,0.0,0.0,65,0.00,,,0.00,VWS V14.01,2013-06-23 05:25:00,
2013-06-23 00:26:00,81.0,68.1,28.79,South,181,0.0,0.0,65,0.00,,,0.00,VWS V14.01,2013-06-23 05:26:00,
2013-06-23 00:27:00,81.0,68.1,28.79,SE,139,0.0,2.2,65,0.00,,,0.00,VWS V14.01,2013-06-23 05:27:00,
2013-06-23 00:28:00,81.0,68.1,28.79,SSE,163,0.0,0.0,65,0.00,,CLR,0.00,VWS V14.01,2013-06-23 05:28:00,
2013-06-23 00:29:00,81.0,68.1,28.79,SSE,158,0.0,0.0,65,0.00,,,0.00,VWS V14.01,2013-06-23 05:29:00,
2013-06-23 00:30:00,81.0,68.1,28.79,SE,141,0.0,0.0,65,0.00,,,0.00,VWS V14.01,2013-06-23 05:30:00,
2013-06-23 00:31:00,81.0,68.1,28.79,SE,143,0.0,0.0,65,0.00,,,0.00,VWS V14.01,2013-06-23 05:31:00,
2013-06-23 00:32:00,81.0,68.1,28.79,SE,134,2.2,2.2,65,0.00,,,0.00,VWS V14.01,2013-06-23 05:32:00,
2013-06-23 00:33:00,81.0,68.1,28.79,SSE,157,0.0,2.7,65,0.00,,CLR,0.00,VWS V14.01,2013-06-23 05:33:00,
2013-06-23 00:34:00,81.0,68.1,28.79,South,171,0.0,2.7,65,0.00,,,0.00,VWS V14.01,2013-06-23 05:34:00,
2013-06-23 00:35:00,81.0,68.1,28.79,South,184,0.0,0.0,65,0.00,,,0.00,VWS V14.01,2013-06-23 05:35:00,
2013-06-23 00:36:00,81.0,68.1,28.79,South,183,0.0,0.0,65,0.00,,,0.00,VWS V14.01,2013-06-23 05:36:00,
2013-06-23 00:37:00,80.8,67.9,28.79,South,171,0.0,2.2,65,0.00,,,0.00,VWS V14.01,2013-06-23 05:37:00,
2013-06-23 00:38:00,80.8,67.9,28.79,South,191,0.0,0.0,65,0.00,,CLR,0.00,VWS V14.01,2013-06-23 05:38:00,
2013-06-23 00:39:00,80.8,67.9,28.79,SE,138,0.0,0.0,65,0.00,,,0.00,VWS V14.01,2013-06-23 05:39:00,
2013-06-23 00:40:00,80.8,67.9,28.79,SSE,166,0.0,0.0,65,0.00,,,0.00,VWS V14.01,2013-06-23 05:40:00,
2013-06-23 00:41:00,80.8,67.9,28.79,SSE,168,0.0,2.7,65,0.00,,,0.00,VWS V14.01,2013-06-23 05:41:00,
2013-06-23 00:42:00,80.8,67.9,28.79,SE,130,0.0,0.0,65,0.00,,,0.00,VWS V14.01,2013-06-23 05:42:00,
2013-06-23 00:43:00,80.8,67.9,28.79,South,173,0.0,0.0,65,0.00,,CLR,0.00,VWS V14.01,2013-06-23 05:43:00,
2013-06-23 00:44:00,80.8,67.9,28.79,South,175,0.0,0.0,65,0.00,,,0.00,VWS V14.01,2013-06-23 05:44:00,
2013-06-23 00:45:00,80.8,67.9,28.79,SSE,148,0.0,0.0,65,0.00,,,0.00,VWS V14.01,2013-06-23 05:45:00,
2013-06-23 00:46:00,80.8,67.9,28.76,SSE,148,0.0,0.0,65,0.00,,,0.00,VWS V14.01,2013-06-23 05:46:00,
2013-06-23 00:47:00,80.8,67.9,28.76,SE,144,0.0,0.0,65,0.00,,,0.00,VWS V14.01,2013-06-23 05:47:00,
2013-06-23 00:48:00,80.8,67.9,28.76,SSE,157,0.0,0.0,65,0.00,,CLR,0.00,VWS V14.01,2013-06-23 05:48:00,
2013-06-23 00:49:00,80.8,67.9,28.76,East,86,0.0,0.0,65,0.00,,,0.00,VWS V14.01,2013-06-23 05:49:00,
2013-06-23 00:50:00,80.8,67.9,28.76,SSE,161,0.0,3.1,65,0.00,,,0.00,VWS V14.01,2013-06-23 05:50:00,
2013-06-23 00:51:00,80.6,67.8,28.76,SSE,159,0.0,0.0,65,0.00,,,0.00,VWS V14.01,2013-06-23 05:51:00,
2013-06-23 00:52:00,80.6,67.8,28.76,SSE,152,0.0,0.0,65,0.00,,,0.00,VWS V14.01,2013-06-23 05:52:00,
2013-06-23 00:53:00,80.6,67.8,28.76,SSE,147,0.0,0.0,65,0.00,,CLR,0.00,VWS V14.01,2013-06-23 05:53:00,
2013-06-23 00:54:00,80.6,67.8,28.76,ESE,110,0.0,0.0,65,0.00,,,0.00,VWS V14.01,2013-06-23 05:54:00,
2013-06-23 00:55:00,80.6,67.8,28.76,SSE,166,2.7,2.7,65,0.00,,,0.00,VWS V14.01,2013-06-23 05:55:00,
2013-06-23 00:56:00,80.6,67.8,28.76,SE,142,0.0,2.7,65,0.00,,,0.00,VWS V14.01,2013-06-23 05:56:00,
2013-06-23 00:57:00,80.4,68.0,28.76,South,173,0.0,0.0,66,0.00,,,0.00,VWS V14.01,2013-06-23 05:57:00,
2013-06-23 00:58:00,80.4,68.0,28.76,ESE,120,0.0,2.2,66,0.00,,CLR,0.00,VWS V14.01,2013-06-23 05:58:00,
2013-06-23 00:59:00,80.4,68.0,28.76,SSE,166,0.0,2.2,66,0.00,,,0.00,VWS V14.01,2013-06-23 05:59:00,
2013-06-23 01:00:00,80.4,68.0,28.76,SE,138,4.0,4.0,66,0.00,,,0.00,VWS V14.01,2013-06-23 06:00:00,
2013-06-23 01:01:00,80.4,68.0,28.76,SE,145,0.0,6.3,66,0.00,,CLR,0.00,VWS V14.01,2013-06-23 06:01:00,
2013-06-23 01:02:00,80.2,67.9,28.76,ESE,119,0.0,0.0,66,0.00,,,0.00,VWS V14.01,2013-06-23 06:02:00,
2013-06-23 01:03:00,80.2,67.9,28.76,ENE,76,0.0,0.0,66,0.00,,,0.00,VWS V14.01,2013-06-23 06:03:00,
2013-06-23 01:04:00,80.2,67.9,28.76,East,85,0.0,0.0,66,0.00,,,0.00,VWS V14.01,2013-06-23 06:04:00,
2013-06-23 01:05:00,80.2,67.9,28.76,SE,137,0.0,4.9,66,0.00,,,0.00,VWS V14.01,2013-06-23 06:05:00,
2013-06-23 01:06:00,80.2,67.9,28.76,SSE,156,0.0,2.2,66,0.00,,CLR,0.00,VWS V14.01,2013-06-23 06:06:00,
2013-06-23 01:07:00,80.2,67.9,28.76,SSE,148,2.7,2.7,66,0.00,,,0.00,VWS V14.01,2013-06-23 06:07:00,
2013-06-23 01:08:00,80.2,67.9,28.76,ESE,114,0.0,2.7,66,0.00,,,0.00,VWS V14.01,2013-06-23 06:08:00,
2013-06-23 01:09:00,80.2,67.9,28.76,ENE,72,0.0,2.2,66,0.00,,,0.00,VWS V14.01,2013-06-23 06:09:00,
2013-06-23 01:10:00,80.1,67.7,28.76,South,171,0.0,0.0,66,0.00,,,0.00,VWS V14.01,2013-06-23 06:10:00,
2013-06-23 01:11:00,80.1,67.7,28.76,SSE,151,3.6,3.6,66,0.00,,CLR,0.00,VWS V14.01,2013-06-23 06:11:00,
2013-06-23 01:12:00,80.1,67.7,28.76,SE,133,0.0,3.6,66,0.00,,,0.00,VWS V14.01,2013-06-23 06:12:00,
2013-06-23 01:13:00,80.1,67.7,28.76,ESE,107,0.0,0.0,66,0.00,,,0.00,VWS V14.01,2013-06-23 06:13:00,
2013-06-23 01:14:00,80.1,68.1,28.76,ESE,113,0.0,3.6,67,0.00,,,0.00,VWS V14.01,2013-06-23 06:14:00,
2013-06-23 01:15:00,80.1,68.1,28.76,ENE,73,0.0,2.2,67,0.00,,,0.00,VWS V14.01,2013-06-23 06:15:00,
2013-06-23 01:16:00,80.1,68.1,28.76,South,169,0.0,0.0,67,0.00,,CLR,0.00,VWS V14.01,2013-06-23 06:16:00,
2013-06-23 01:17:00,79.9,67.9,28.76,SSE,160,0.0,0.0,67,0.00,,,0.00,VWS V14.01,2013-06-23 06:17:00,
2013-06-23 01:18:00,79.9,67.9,28.76,South,187,0.0,0.0,67,0.00,,,0.00,VWS V14.01,2013-06-23 06:18:00,
2013-06-23 01:19:00,79.9,67.9,28.76,SE,124,0.0,3.1,67,0.00,,,0.00,VWS V14.01,2013-06-23 06:19:00,
2013-06-23 01:20:00,79.9,67.9,28.76,SE,124,0.0,0.0,67,0.00,,,0.00,VWS V14.01,2013-06-23 06:20:00,
2013-06-23 01:21:00,79.9,67.9,28.76,East,98,0.0,0.0,67,0.00,,CLR,0.00,VWS V14.01,2013-06-23 06:21:00,
2013-06-23 01:22:00,79.9,67.9,28.76,SE,133,0.0,0.0,67,0.00,,,0.00,VWS V14.01,2013-06-23 06:22:00,
2013-06-23 01:23:00,79.9,67.9,28.76,SSE,148,0.0,0.0,67,0.00,,,0.00,VWS V14.01,2013-06-23 06:23:00,
2013-06-23 01:24:00,79.9,67.9,28.76,ESE,119,0.0,2.2,67,0.00,,,0.00,VWS V14.01,2013-06-23 06:24:00,
2013-06-23 01:25:00,79.9,67.9,28.76,SSE,165,0.0,0.0,67,0.00,,,0.00,VWS V14.01,2013-06-23 06:25:00,
2013-06-23 01:26:00,80.1,68.1,28.76,SSW,194,0.0,0.0,67,0.00,,CLR,0.00,VWS V14.01,2013-06-23 06:26:00,
2013-06-23 01:27:00,80.1,68.1,28.76,SE,129,0.0,2.2,67,0.00,,,0.00,VWS V14.01,2013-06-23 06:27:00,
2013-06-23 01:28:00,80.1,68.1,28.76,SE,129,3.6,3.6,67,0.00,,,0.00,VWS V14.01,2013-06-23 06:28:00,
2013-06-23 01:29:00,80.1,68.1,28.76,SE,130,0.0,5.4,67,0.00,,,0.00,VWS V14.01,2013-06-23 06:29:00,
2013-06-23 01:30:00,80.1,68.1,28.76,East,99,0.0,2.7,67,0.00,,,0.00,VWS V14.01,2013-06-23 06:30:00,
2013-06-23 01:31:00,80.1,68.1,28.76,SSE,165,0.0,0.0,67,0.00,,CLR,0.00,VWS V14.01,2013-06-23 06:31:00,
2013-06-23 01:32:00,80.1,68.1,28.76,SE,136,0.0,0.0,67,0.00,,,0.00,VWS V14.01,2013-06-23 06:32:00,
2013-06-23 01:33:00,80.1,68.1,28.76,SE,139,0.0,3.1,67,0.00,,,0.00,VWS V14.01,2013-06-23 06:33:00,
2013-06-23 01:34:00,80.1,68.1,28.76,SSE,155,3.1,3.1,67,0.00,,,0.00,VWS V14.01,2013-06-23 06:34:00,
2013-06-23 01:35:00,80.1,68.1,28.76,SE,125,0.0,3.1,67,0.00,,,0.00,VWS V14.01,2013-06-23 06:35:00,
2013-06-23 01:36:00,80.1,68.6,28.76,ESE,102,0.0,0.0,68,0.00,,CLR,0.00,VWS V14.01,2013-06-23 06:36:00,
2013-06-23 01:37:00,80.1,68.6,28.76,South,170,0.0,2.2,68,0.00,,,0.00,VWS V14.01,2013-06-23 06:37:00,
2013-06-23 01:38:00,80.1,68.6,28.76,SSE,147,0.0,3.1,68,0.00,,,0.00,VWS V14.01,2013-06-23 06:38:00,
2013-06-23 01:39:00,80.1,68.6,28.76,SSW,194,2.2,2.2,68,0.00,,,0.00,VWS V14.01,2013-06-23 06:39:00,
2013-06-23 01:40:00,80.1,68.6,28.76,SE,135,0.0,2.2,68,0.00,,,0.00,VWS V14.01,2013-06-23 06:40:00,
2013-06-23 01:41:00,80.1,68.6,28.76,SSE,153,0.0,0.0,68,0.00,,CLR,0.00,VWS V14.01,2013-06-23 06:41:00,
2013-06-23 01:42:00,80.1,68.6,28.76,SE,126,0.0,0.0,68,0.00,,,0.00,VWS V14.01,2013-06-23 06:42:00,
2013-06-23 01:43:00,79.9,68.4,28.76,South,170,0.0,3.1,68,0.00,,,0.00,VWS V14.01,2013-06-23 06:43:00,
2013-06-23 01:44:00,79.9,68.4,28.76,East,86,0.0,0.0,68,0.00,,,0.00,VWS V14.01,2013-06-23 06:44:00,
2013-06-23 01:45:00,79.9,68.4,28.76,SE,141,0.0,0.0,68,0.00,,,0.00,VWS V14.01,2013-06-23 06:45:00,
2013-06-23 01:46:00,79.7,68.2,28.76,SE,138,0.0,0.0,68,0.00,,CLR,0.00,VWS V14.01,2013-06-23 06:46:00,
2013-06-23 01:47:00,79.7,68.2,28.76,SE,124,0.0,4.0,68,0.00,,,0.00,VWS V14.01,2013-06-23 06:47:00,
2013-06-23 01:48:00,79.7,68.2,28.76,SE,128,0.0,0.0,68,0.00,,,0.00,VWS V14.01,2013-06-23 06:48:00,
2013-06-23 01:49:00,79.7,68.2,28.76,ESE,108,0.0,0.0,68,0.00,,,0.00,VWS V14.01,2013-06-23 06:49:00,
2013-06-23 01:50:00,79.7,68.2,28.76,SSE,164,2.2,2.7,68,0.00,,,0.00,VWS V14.01,2013-06-23 06:50:00,
2013-06-23 01:51:00,79.7,68.2,28.76,SSE,151,0.0,0.0,68,0.00,,CLR,0.00,VWS V14.01,2013-06-23 06:51:00,
2013-06-23 01:52:00,79.7,68.2,28.76,SSE,161,0.0,0.0,68,0.00,,,0.00,VWS V14.01,2013-06-23 06:52:00,
2013-06-23 01:53:00,79.7,68.6,28.76,South,183,0.0,0.0,69,0.00,,,0.00,VWS V14.01,2013-06-23 06:53:00,
2013-06-23 01:54:00,79.7,68.6,28.76,SE,138,0.0,0.0,69,0.00,,,0.00,VWS V14.01,2013-06-23 06:54:00,
2013-06-23 01:55:00,79.7,68.6,28.76,SSE,166,0.0,0.0,69,0.00,,,0.00,VWS V14.01,2013-06-23 06:55:00,
2013-06-23 01:56:00,79.7,68.6,28.76,SSE,148,0.0,0.0,69,0.00,,CLR,0.00,VWS V14.01,2013-06-23 06:56:00,
2013-06-23 01:57:00,79.7,68.6,28.76,SE,134,3.1,3.1,69,0.00,,,0.00,VWS V14.01,2013-06-23 06:57:00,
2013-06-23 01:58:00,79.7,68.6,28.76,SE,125,0.0,3.1,69,0.00,,,0.00,VWS V14.01,2013-06-23 06:58:00,
2013-06-23 01:59:00,79.7,68.6,28.76,South,173,0.0,0.0,69,0.00,,,0.00,VWS V14.01,2013-06-23 06:59:00,
2013-06-23 02:00:00,79.7,68.6,28.76,SSE,157,0.0,0.0,69,0.00,,,0.00,VWS V14.01,2013-06-23 07:00:00,
2013-06-23 02:01:00,79.7,68.6,28.76,SE,132,0.0,0.0,69,0.00,,CLR,0.00,VWS V14.01,2013-06-23 07:01:00,
2013-06-23 02:02:00,79.7,68.6,28.76,SE,139,0.0,0.0,69,0.00,,,0.00,VWS V14.01,2013-06-23 07:02:00,
2013-06-23 02:03:00,79.7,68.6,28.76,SSE,164,0.0,0.0,69,0.00,,,0.00,VWS V14.01,2013-06-23 07:03:00,
2013-06-23 02:04:00,79.7,68.6,28.76,SSE,150,0.0,0.0,69,0.00,,,0.00,VWS V14.01,2013-06-23 07:04:00,
2013-06-23 02:05:00,79.7,68.6,28.76,East,92,0.0,0.0,69,0.00,,,0.00,VWS V14.01,2013-06-23 07:05:00,
2013-06-23 02:06:00,79.7,69.1,28.76,ESE,112,0.0,2.2,70,0.00,,CLR,0.00,VWS V14.01,2013-06-23 07:06:00,
2013-06-23 02:07:00,79.7,69.1,28.76,SE,136,0.0,3.6,70,0.00,,,0.00,VWS V14.01,2013-06-23 07:07:00,
2013-06-23 02:08:00,79.7,69.1,28.76,SSE,153,2.2,2.2,70,0.00,,,0.00,VWS V14.01,2013-06-23 07:08:00,
2013-06-23 02:09:00,79.7,69.1,28.76,SSE,168,0.0,2.2,70,0.00,,,0.00,VWS V14.01,2013-06-23 07:09:00,
2013-06-23 02:10:00,79.7,69.1,28.76,South,171,0.0,0.0,70,0.00,,,0.00,VWS V14.01,2013-06-23 07:10:00,
2013-06-23 02:11:00,79.7,69.1,28.76,ESE,123,0.0,0.0,70,0.00,,CLR,0.00,VWS V14.01,2013-06-23 07:11:00,
2013-06-23 02:12:00,79.7,69.1,28.76,ESE,109,0.0,0.0,70,0.00,,,0.00,VWS V14.01,2013-06-23 07:12:00,
2013-06-23 02:13:00,79.7,69.1,28.76,ESE,105,0.0,0.0,70,0.00,,,0.00,VWS V14.01,2013-06-23 07:13:00,
2013-06-23 02:14:00,79.7,69.1,28.76,SE,132,0.0,0.0,70,0.00,,,0.00,VWS V14.01,2013-06-23 07:14:00,
2013-06-23 02:15:00,79.7,69.1,28.76,SE,134,0.0,0.0,70,0.00,,,0.00,VWS V14.01,2013-06-23 07:15:00,
2013-06-23 02:16:00,79.7,69.1,28.76,ENE,71,0.0,0.0,70,0.00,,CLR,0.00,VWS V14.01,2013-06-23 07:16:00,
2013-06-23 02:17:00,79.7,69.1,28.76,ESE,105,0.0,0.0,70,0.00,,,0.00,VWS V14.01,2013-06-23 07:17:00,
2013-06-23 02:18:00,79.7,69.1,28.76,South,177,0.0,0.0,70,0.00,,,0.00,VWS V14.01,2013-06-23 07:18:00,
2013-06-23 02:19:00,79.7,69.1,28.76,ESE,118,0.0,2.2,70,0.00,,,0.00,VWS V14.01,2013-06-23 07:19:00,
2013-06-23 02:20:00,79.5,68.9,28.76,SSW,213,2.2,2.2,70,0.00,,,0.00,VWS V14.01,2013-06-23 07:20:00,
2013-06-23 02:21:00,79.5,68.9,28.76,SE,141,6.3,6.3,70,0.00,,CLR,0.00,VWS V14.01,2013-06-23 07:21:00,
2013-06-23 02:22:00,79.5,68.9,28.76,SE,127,0.0,6.3,70,0.00,,,0.00,VWS V14.01,2013-06-23 07:22:00,
2013-06-23 02:23:00,79.5,69.3,28.76,SSE,165,0.0,0.0,71,0.00,,,0.00,VWS V14.01,2013-06-23 07:23:00,
2013-06-23 02:24:00,79.5,69.3,28.76,ENE,71,0.0,0.0,71,0.00,,,0.00,VWS V14.01,2013-06-23 07:24:00,
2013-06-23 02:25:00,79.5,69.3,28.76,SSE,160,0.0,4.0,71,0.00,,,0.00,VWS V14.01,2013-06-23 07:25:00,
2013-06-23 02:26:00,79.5,69.3,28.76,SSE,151,0.0,0.0,71,0.00,,CLR,0.00,VWS V14.01,2013-06-23 07:26:00,
2013-06-23 02:27:00,79.5,69.3,28.76,SE,137,0.0,0.0,71,0.00,,,0.00,VWS V14.01,2013-06-23 07:27:00,
2013-06-23 02:28:00,79.5,69.3,28.76,SE,140,0.0,0.0,71,0.00,,,0.00,VWS V14.01,2013-06-23 07:28:00,
2013-06-23 02:29:00,79.5,69.3,28.76,SE,142,0.0,0.0,71,0.00,,,0.00,VWS V14.01,2013-06-23 07:29:00,
2013-06-23 02:30:00,79.5,69.3,28.76,SE,138,0.0,0.0,71,0.00,,,0.00,VWS V14.01,2013-06-23 07:30:00,
2013-06-23 02:31:00,79.5,69.3,28.79,ESE,117,0.0,0.0,71,0.00,,,0.00,VWS V14.01,2013-06-23 07:31:00,
2013-06-23 02:32:00,79.5,69.3,28.79,ESE,122,0.0,0.0,71,0.00,,CLR,0.00,VWS V14.01,2013-06-23 07:32:00,
2013-06-23 02:33:00,79.3,69.1,28.79,SE,136,0.0,0.0,71,0.00,,,0.00,VWS V14.01,2013-06-23 07:33:00,
2013-06-23 02:34:00,79.3,69.1,28.79,SE,139,0.0,2.7,71,0.00,,,0.00,VWS V14.01,2013-06-23 07:34:00,
2013-06-23 02:35:00,79.3,69.1,28.79,ESE,106,0.0,0.0,71,0.00,,,0.00,VWS V14.01,2013-06-23 07:35:00,
2013-06-23 02:36:00,79.3,69.1,28.79,SE,128,0.0,0.0,71,0.00,,,0.00,VWS V14.01,2013-06-23 07:36:00,
2013-06-23 02:37:00,79.3,69.1,28.79,SE,142,0.0,0.0,71,0.00,,CLR,0.00,VWS V14.01,2013-06-23 07:37:00,
2013-06-23 02:38:00,79.3,69.1,28.79,SSE,157,0.0,0.0,71,0.00,,,0.00,VWS V14.01,2013-06-23 07:38:00,
2013-06-23 02:39:00,79.3,69.1,28.79,SSW,192,0.0,0.0,71,0.00,,,0.00,VWS V14.01,2013-06-23 07:39:00,
2013-06-23 02:40:00,79.3,69.1,28.79,East,94,0.0,0.0,71,0.00,,,0.00,VWS V14.01,2013-06-23 07:40:00,
2013-06-23 02:41:00,79.3,69.1,28.79,SE,140,0.0,0.0,71,0.00,,,0.00,VWS V14.01,2013-06-23 07:41:00,
2013-06-23 02:42:00,79.3,69.1,28.79,South,170,0.0,0.0,71,0.00,,CLR,0.00,VWS V14.01,2013-06-23 07:42:00,
2013-06-23 02:43:00,79.2,69.0,28.79,ESE,119,0.0,0.0,71,0.00,,,0.00,VWS V14.01,2013-06-23 07:43:00,
2013-06-23 02:44:00,79.2,69.0,28.79,ESE,117,0.0,0.0,71,0.00,,,0.00,VWS V14.01,2013-06-23 07:44:00,
2013-06-23 02:45:00,79.0,69.2,28.79,SE,139,0.0,0.0,72,0.00,,,0.00,VWS V14.01,2013-06-23 07:45:00,
2013-06-23 02:46:00,79.0,69.2,28.79,SSE,159,0.0,0.0,72,0.00,,,0.00,VWS V14.01,2013-06-23 07:46:00,
2013-06-23 02:47:00,79.0,69.2,28.79,SE,129,0.0,0.0,72,0.00,,CLR,0.00,VWS V14.01,2013-06-23 07:47:00,
2013-06-23 02:48:00,79.0,69.2,28.79,ESE,103,0.0,0.0,72,0.00,,,0.00,VWS V14.01,2013-06-23 07:48:00,
2013-06-23 02:49:00,79.0,69.2,28.79,SE,125,0.0,0.0,72,0.00,,,0.00,VWS V14.01,2013-06-23 07:49:00,
2013-06-23 02:50:00,79.0,69.2,28.79,SE,137,0.0,0.0,72,0.00,,,0.00,VWS V14.01,2013-06-23 07:50:00,
2013-06-23 02:51:00,79.0,69.2,28.79,SSE,153,0.0,0.0,72,0.00,,,0.00,VWS V14.01,2013-06-23 07:51:00,
2013-06-23 02:52:00,79.0,69.2,28.79,ESE,109,0.0,0.0,72,0.00,,CLR,0.00,VWS V14.01,2013-06-23 07:52:00,
2013-06-23 02:53:00,79.0,69.2,28.79,South,169,0.0,0.0,72,0.00,,,0.00,VWS V14.01,2013-06-23 07:53:00,
2013-06-23 02:54:00,78.8,69.0,28.79,SE,137,0.0,0.0,72,0.00,,,0.00,VWS V14.01,2013-06-23 07:54:00,
2013-06-23 02:55:00,78.8,69.0,28.79,SE,140,0.0,0.0,72,0.00,,,0.00,VWS V14.01,2013-06-23 07:55:00,
2013-06-23 02:56:00,78.8,69.0,28.79,SE,133,0.0,0.0,72,0.00,,,0.00,VWS V14.01,2013-06-23 07:56:00,
2013-06-23 02:57:00,78.8,69.0,28.79,ESE,112,0.0,0.0,72,0.00,,CLR,0.00,VWS V14.01,2013-06-23 07:57:00,
2013-06-23 02:58:00,78.8,69.0,28.79,South,182,0.0,0.0,72,0.00,,,0.00,VWS V14.01,2013-06-23 07:58:00,
2013-06-23 02:59:00,78.8,69.0,28.79,ENE,74,0.0,0.0,72,0.00,,,0.00,VWS V14.01,2013-06-23 07:59:00,
2013-06-23 03:00:00,78.8,69.0,28.79,East,98,0.0,0.0,72,0.00,,,0.00,VWS V14.01,2013-06-23 08:00:00,
2013-06-23 03:01:00,78.8,69.4,28.79,ESE,111,0.0,0.0,73,0.00,,,0.00,VWS V14.01,2013-06-23 08:01:00,
2013-06-23 03:02:00,78.8,69.4,28.79,SSE,153,0.0,0.0,73,0.00,,CLR,0.00,VWS V14.01,2013-06-23 08:02:00,
2013-06-23 03:03:00,78.8,69.4,28.79,ESE,106,0.0,0.0,73,0.00,,,0.00,VWS V14.01,2013-06-23 08:03:00,
2013-06-23 03:04:00,78.8,69.4,28.79,South,178,0.0,0.0,73,0.00,,,0.00,VWS V14.01,2013-06-23 08:04:00,
2013-06-23 03:05:00,78.8,69.4,28.79,South,170,0.0,0.0,73,0.00,,,0.00,VWS V14.01,2013-06-23 08:05:00,
2013-06-23 03:06:00,78.8,69.4,28.79,ESE,116,0.0,0.0,73,0.00,,,0.00,VWS V14.01,2013-06-23 08:06:00,
2013-06-23 03:07:00,78.8,69.4,28.79,ESE,109,0.0,0.0,73,0.00,,CLR,0.00,VWS V14.01,2013-06-23 08:07:00,
2013-06-23 03:08:00,78.8,69.4,28.79,ESE,118,0.0,0.0,73,0.00,,,0.00,VWS V14.01,2013-06-23 08:08:00,
2013-06-23 03:09:00,78.8,69.4,28.79,ESE,122,0.0,0.0,73,0.00,,,0.00,VWS V14.01,2013-06-23 08:09:00,
2013-06-23 03:10:00,78.6,69.2,28.79,SE,140,0.0,0.0,73,0.00,,,0.00,VWS V14.01,2013-06-23 08:10:00,
2013-06-23 03:11:00,78.6,69.2,28.79,ESE,116,0.0,0.0,73,0.00,,,0.00,VWS V14.01,2013-06-23 08:11:00,
2013-06-23 03:12:00,78.6,69.2,28.79,ESE,109,0.0,0.0,73,0.00,,CLR,0.00,VWS V14.01,2013-06-23 08:12:00,
2013-06-23 03:13:00,78.6,69.2,28.79,ENE,78,0.0,0.0,73,0.00,,,0.00,VWS V14.01,2013-06-23 08:13:00,
2013-06-23 03:14:00,78.6,69.2,28.79,East,80,0.0,0.0,73,0.00,,,0.00,VWS V14.01,2013-06-23 08:14:00,
2013-06-23 03:15:00,78.6,69.2,28.79,East,92,0.0,0.0,73,0.00,,,0.00,VWS V14.01,2013-06-23 08:15:00,
2013-06-23 03:16:00,78.6,69.6,28.79,East,79,0.0,0.0,74,0.00,,,0.00,VWS V14.01,2013-06-23 08:16:00,
2013-06-23 03:17:00,78.4,69.5,28.79,East,84,0.0,0.0,74,0.00,,CLR,0.00,VWS V14.01,2013-06-23 08:17:00,
2013-06-23 03:18:00,78.4,69.5,28.79,East,83,0.0,0.0,74,0.00,,,0.00,VWS V14.01,2013-06-23 08:18:00,
2013-06-23 03:19:00,78.4,69.5,28.79,East,84,0.0,0.0,74,0.00,,,0.00,VWS V14.01,2013-06-23 08:19:00,
2013-06-23 03:20:00,78.4,69.5,28.79,East,84,0.0,0.0,74,0.00,,,0.00,VWS V14.01,2013-06-23 08:20:00,
2013-06-23 03:21:00,78.4,69.5,28.79,East,81,0.0,0.0,74,0.00,,,0.00,VWS V14.01,2013-06-23 08:21:00,
2013-06-23 03:22:00,78.4,69.5,28.79,East,81,0.0,0.0,74,0.00,,CLR,0.00,VWS V14.01,2013-06-23 08:22:00,
2013-06-23 03:23:00,78.4,69.5,28.79,ESE,104,0.0,0.0,74,0.00,,,0.00,VWS V14.01,2013-06-23 08:23:00,
2013-06-23 03:24:00,78.3,69.3,28.79,ENE,71,0.0,0.0,74,0.00,,,0.00,VWS V14.01,2013-06-23 08:24:00,
2013-06-23 03:25:00,78.3,69.3,28.79,ESE,109,0.0,0.0,74,0.00,,,0.00,VWS V14.01,2013-06-23 08:25:00,
2013-06-23 03:26:00,78.3,69.3,28.79,SE,127,0.0,0.0,74,0.00,,,0.00,VWS V14.01,2013-06-23 08:26:00,
2013-06-23 03:27:00,78.3,69.3,28.79,SE,141,0.0,0.0,74,0.00,,CLR,0.00,VWS V14.01,2013-06-23 08:27:00,
2013-06-23 03:28:00,78.3,69.3,28.79,ESE,123,0.0,0.0,74,0.00,,,0.00,VWS V14.01,2013-06-23 08:28:00,
2013-06-23 03:29:00,78.3,69.3,28.79,SE,142,0.0,0.0,74,0.00,,,0.00,VWS V14.01,2013-06-23 08:29:00,
2013-06-23 03:30:00,78.3,69.3,28.79,ESE,122,0.0,0.0,74,0.00,,,0.00,VWS V14.01,2013-06-23 08:30:00,
2013-06-23 03:31:00,78.3,69.3,28.79,SE,137,0.0,0.0,74,0.00,,,0.00,VWS V14.01,2013-06-23 08:31:00,
2013-06-23 03:32:00,78.3,69.3,28.76,SE,127,0.0,0.0,74,0.00,,CLR,0.00,VWS V14.01,2013-06-23 08:32:00,
2013-06-23 03:33:00,78.3,69.3,28.76,SSE,164,0.0,0.0,74,0.00,,,0.00,VWS V14.01,2013-06-23 08:33:00,
2013-06-23 03:34:00,78.3,69.3,28.76,SSE,166,0.0,0.0,74,0.00,,,0.00,VWS V14.01,2013-06-23 08:34:00,
2013-06-23 03:35:00,78.3,69.3,28.76,ESE,110,0.0,0.0,74,0.00,,,0.00,VWS V14.01,2013-06-23 08:35:00,
2013-06-23 03:36:00,78.3,69.3,28.76,ESE,120,0.0,0.0,74,0.00,,,0.00,VWS V14.01,2013-06-23 08:36:00,
2013-06-23 03:37:00,78.3,69.7,28.76,ESE,109,0.0,0.0,75,0.00,,CLR,0.00,VWS V14.01,2013-06-23 08:37:00,
2013-06-23 03:38:00,78.3,69.7,28.76,SE,128,0.0,0.0,75,0.00,,,0.00,VWS V14.01,2013-06-23 08:38:00,
2013-06-23 03:39:00,78.3,69.7,28.76,SE,127,0.0,0.0,75,0.00,,,0.00,VWS V14.01,2013-06-23 08:39:00,
2013-06-23 03:40:00,78.1,69.5,28.76,East,96,0.0,0.0,75,0.00,,,0.00,VWS V14.01,2013-06-23 08:40:00,
2013-06-23 03:41:00,78.1,69.5,28.76,ESE,104,0.0,0.0,75,0.00,,,0.00,VWS V14.01,2013-06-23 08:41:00,
2013-06-23 03:42:00,78.1,69.5,28.76,East,97,0.0,0.0,75,0.00,,CLR,0.00,VWS V14.01,2013-06-23 08:42:00,
2013-06-23 03:43:00,78.1,69.5,28.76,SE,135,0.0,0.0,75,0.00,,,0.00,VWS V14.01,2013-06-23 08:43:00,
2013-06-23 03:44:00,78.1,69.5,28.76,SE,131,0.0,0.0,75,0.00,,,0.00,VWS V14.01,2013-06-23 08:44:00,
2013-06-23 03:45:00,78.1,69.5,28.76,SE,143,0.0,0.0,75,0.00,,,0.00,VWS V14.01,2013-06-23 08:45:00,
2013-06-23 03:46:00,78.1,69.5,28.79,SE,125,0.0,0.0,75,0.00,,,0.00,VWS V14.01,2013-06-23 08:46:00,
2013-06-23 03:47:00,78.1,69.5,28.79,SE,125,0.0,0.0,75,0.00,,,0.00,VWS V14.01,2013-06-23 08:47:00,
2013-06-23 03:48:00,77.9,69.3,28.79,ESE,109,0.0,0.0,75,0.00,,CLR,0.00,VWS V14.01,2013-06-23 08:48:00,
2013-06-23 03:49:00,77.9,69.3,28.79,SE,146,0.0,0.0,75,0.00,,,0.00,VWS V14.01,2013-06-23 08:49:00,
2013-06-23 03:50:00,77.9,69.3,28.79,SE,126,0.0,0.0,75,0.00,,,0.00,VWS V14.01,2013-06-23 08:50:00,
2013-06-23 03:51:00,77.9,69.3,28.79,ENE,77,0.0,0.0,75,0.00,,,0.00,VWS V14.01,2013-06-23 08:51:00,
2013-06-23 03:52:00,77.9,69.3,28.79,SSE,150,0.0,0.0,75,0.00,,,0.00,VWS V14.01,2013-06-23 08:52:00,
2013-06-23 03:53:00,77.9,69.3,28.79,SE,126,0.0,0.0,75,0.00,,CLR,0.00,VWS V14.01,2013-06-23 08:53:00,
2013-06-23 03:54:00,77.9,69.3,28.79,SSE,160,0.0,0.0,75,0.00,,,0.00,VWS V14.01,2013-06-23 08:54:00,
2013-06-23 03:55:00,77.9,69.3,28.79,SSE,148,0.0,0.0,75,0.00,,,0.00,VWS V14.01,2013-06-23 08:55:00,
2013-06-23 03:56:00,77.9,69.3,28.79,SSE,167,0.0,0.0,75,0.00,,,0.00,VWS V14.01,2013-06-23 08:56:00,
2013-06-23 03:57:00,77.9,69.3,28.79,SE,146,0.0,0.0,75,0.00,,,0.00,VWS V14.01,2013-06-23 08:57:00,
2013-06-23 03:58:00,77.7,69.2,28.79,South,175,0.0,0.0,75,0.00,,CLR,0.00,VWS V14.01,2013-06-23 08:58:00,
2013-06-23 03:59:00,77.7,69.2,28.79,SE,143,0.0,0.0,75,0.00,,,0.00,VWS V14.01,2013-06-23 08:59:00,
2013-06-23 04:00:00,77.7,69.2,28.79,SE,128,0.0,0.0,75,0.00,,,0.00,VWS V14.01,2013-06-23 09:00:00,
2013-06-23 04:01:00,77.7,69.6,28.79,SSE,156,0.0,0.0,76,0.00,,,0.00,VWS V14.01,2013-06-23 09:01:00,
2013-06-23 04:02:00,77.7,69.6,28.79,SE,144,0.0,0.0,76,0.00,,,0.00,VWS V14.01,2013-06-23 09:02:00,
2013-06-23 04:03:00,77.7,69.6,28.79,ESE,122,0.0,0.0,76,0.00,,CLR,0.00,VWS V14.01,2013-06-23 09:03:00,
2013-06-23 04:04:00,77.7,69.6,28.79,SE,141,0.0,0.0,76,0.00,,,0.00,VWS V14.01,2013-06-23 09:04:00,
2013-06-23 04:05:00,77.7,69.6,28.79,SE,136,0.0,0.0,76,0.00,,,0.00,VWS V14.01,2013-06-23 09:05:00,
2013-06-23 04:06:00,77.7,69.6,28.79,SE,124,0.0,0.0,76,0.00,,,0.00,VWS V14.01,2013-06-23 09:06:00,
2013-06-23 04:07:00,77.7,69.6,28.79,SE,128,0.0,0.0,76,0.00,,,0.00,VWS V14.01,2013-06-23 09:07:00,
2013-06-23 04:08:00,77.7,69.6,28.79,ESE,119,0.0,0.0,76,0.00,,CLR,0.00,VWS V14.01,2013-06-23 09:08:00,
2013-06-23 04:09:00,77.7,69.6,28.79,SE,124,0.0,0.0,76,0.00,,,0.00,VWS V14.01,2013-06-23 09:09:00,
2013-06-23 04:10:00,77.7,69.6,28.79,East,92,0.0,0.0,76,0.00,,,0.00,VWS V14.01,2013-06-23 09:10:00,
2013-06-23 04:11:00,77.7,69.6,28.79,ESE,118,0.0,0.0,76,0.00,,,0.00,VWS V14.01,2013-06-23 09:11:00,
2013-06-23 04:12:00,77.7,69.6,28.79,East,100,0.0,0.0,76,0.00,,,0.00,VWS V14.01,2013-06-23 09:12:00,
2013-06-23 04:13:00,77.7,69.6,28.79,ENE,57,0.0,0.0,76,0.00,,CLR,0.00,VWS V14.01,2013-06-23 09:13:00,
2013-06-23 04:14:00,77.5,69.4,28.79,ESE,113,0.0,0.0,76,0.00,,,0.00,VWS V14.01,2013-06-23 09:14:00,
2013-06-23 04:15:00,77.5,69.4,28.79,ESE,108,0.0,0.0,76,0.00,,,0.00,VWS V14.01,2013-06-23 09:15:00,
2013-06-23 04:16:00,77.5,69.4,28.76,SE,128,0.0,0.0,76,0.00,,,0.00,VWS V14.01,2013-06-23 09:16:00,
2013-06-23 04:17:00,77.5,69.4,28.76,ESE,122,0.0,0.0,76,0.00,,,0.00,VWS V14.01,2013-06-23 09:17:00,
2013-06-23 04:18:00,77.5,69.4,28.76,SE,130,0.0,0.0,76,0.00,,CLR,0.00,VWS V14.01,2013-06-23 09:18:00,
2013-06-23 04:19:00,77.5,69.4,28.76,SE,137,0.0,0.0,76,0.00,,,0.00,VWS V14.01,2013-06-23 09:19:00,
2013-06-23 04:20:00,77.7,69.6,28.76,East,83,0.0,0.0,76,0.00,,,0.00,VWS V14.01,2013-06-23 09:20:00,
2013-06-23 04:21:00,77.7,69.6,28.76,ESE,115,0.0,0.0,76,0.00,,,0.00,VWS V14.01,2013-06-23 09:21:00,
2013-06-23 04:22:00,77.7,69.6,28.76,SSE,160,0.0,0.0,76,0.00,,,0.00,VWS V14.01,2013-06-23 09:22:00,
2013-06-23 04:23:00,77.7,69.6,28.76,ESE,114,0.0,0.0,76,0.00,,CLR,0.00,VWS V14.01,2013-06-23 09:23:00,
2013-06-23 04:24:00,77.7,69.6,28.76,SE,138,0.0,0.0,76,0.00,,,0.00,VWS V14.01,2013-06-23 09:24:00,
2013-06-23 04:25:00,77.7,69.6,28.76,East,87,0.0,0.0,76,0.00,,,0.00,VWS V14.01,2013-06-23 09:25:00,
2013-06-23 04:26:00,77.7,69.6,28.76,SSE,157,0.0,3.6,76,0.00,,,0.00,VWS V14.01,2013-06-23 09:26:00,
2013-06-23 04:27:00,77.5,69.4,28.76,ESE,104,0.0,2.7,76,0.00,,,0.00,VWS V14.01,2013-06-23 09:27:00,
2013-06-23 04:28:00,77.5,69.4,28.76,SE,138,4.0,4.0,76,0.00,,CLR,0.00,VWS V14.01,2013-06-23 09:28:00,
2013-06-23 04:29:00,77.5,69.4,28.76,SE,130,0.0,4.0,76,0.00,,,0.00,VWS V14.01,2013-06-23 09:29:00,
2013-06-23 04:30:00,77.5,69.4,28.76,South,176,0.0,0.0,76,0.00,,,0.00,VWS V14.01,2013-06-23 09:30:00,
2013-06-23 04:31:00,77.5,69.4,28.76,ESE,105,0.0,0.0,76,0.00,,,0.00,VWS V14.01,2013-06-23 09:31:00,
2013-06-23 04:32:00,77.5,69.8,28.76,SE,136,0.0,0.0,77,0.00,,,0.00,VWS V14.01,2013-06-23 09:32:00,
2013-06-23 04:33:00,77.5,69.8,28.76,SSE,164,0.0,2.2,77,0.00,,CLR,0.00,VWS V14.01,2013-06-23 09:33:00,
2013-06-23 04:34:00,77.5,69.8,28.76,SSE,155,2.2,2.2,77,0.00,,,0.00,VWS V14.01,2013-06-23 09:34:00,
2013-06-23 04:35:00,77.5,69.8,28.76,SSE,164,0.0,2.2,77,0.00,,,0.00,VWS V14.01,2013-06-23 09:35:00,
2013-06-23 04:36:00,77.5,69.8,28.76,ESE,123,0.0,0.0,77,0.00,,,0.00,VWS V14.01,2013-06-23 09:36:00,
2013-06-23 04:37:00,77.5,69.8,28.76,ESE,104,0.0,3.1,77,0.00,,,0.00,VWS V14.01,2013-06-23 09:37:00,
2013-06-23 04:38:00,77.4,69.6,28.76,SE,129,0.0,2.2,77,0.00,,CLR,0.00,VWS V14.01,2013-06-23 09:38:00,
2013-06-23 04:39:00,77.4,69.6,28.76,SSE,155,0.0,2.2,77,0.00,,,0.00,VWS V14.01,2013-06-23 09:39:00,
2013-06-23 04:40:00,77.4,69.6,28.76,ESE,119,2.2,3.1,77,0.00,,,0.00,VWS V14.01,2013-06-23 09:40:00,
2013-06-23 04:41:00,77.4,69.6,28.76,NNE,31,0.0,2.2,77,0.00,,,0.00,VWS V14.01,2013-06-23 09:41:00,
2013-06-23 04:42:00,77.2,69.4,28.76,East,96,0.0,0.0,77,0.00,,,0.00,VWS V14.01,2013-06-23 09:42:00,
2013-06-23 04:43:00,77.4,69.6,28.76,SSE,161,0.0,4.9,77,0.00,,CLR,0.00,VWS V14.01,2013-06-23 09:43:00,
2013-06-23 04:44:00,77.4,69.6,28.76,South,169,0.0,4.9,77,0.00,,,0.00,VWS V14.01,2013-06-23 09:44:00,
2013-06-23 04:45:00,77.4,69.6,28.76,SSE,147,0.0,0.0,77,0.00,,,0.00,VWS V14.01,2013-06-23 09:45:00,
2013-06-23 04:46:00,77.4,69.6,28.76,ESE,118,0.0,6.3,77,0.00,,,0.00,VWS V14.01,2013-06-23 09:46:00,
2013-06-23 04:47:00,77.4,69.6,28.76,SSE,150,0.0,2.7,77,0.00,,,0.00,VWS V14.01,2013-06-23 09:47:00,
2013-06-23 04:48:00,77.4,69.6,28.76,ESE,122,3.6,3.6,77,0.00,,CLR,0.00,VWS V14.01,2013-06-23 09:48:00,
2013-06-23 04:49:00,77.4,69.6,28.76,ESE,115,0.0,3.6,77,0.00,,,0.00,VWS V14.01,2013-06-23 09:49:00,
2013-06-23 04:50:00,77.4,69.6,28.76,ESE,111,0.0,6.7,77,0.00,,,0.00,VWS V14.01,2013-06-23 09:50:00,
2013-06-23 04:51:00,77.4,69.6,28.76,SE,138,0.0,0.0,77,0.00,,,0.00,VWS V14.01,2013-06-23 09:51:00,
2013-06-23 04:52:00,77.4,69.6,28.76,ESE,103,0.0,0.0,77,0.00,,,0.00,VWS V14.01,2013-06-23 09:52:00,
2013-06-23 04:53:00,77.4,69.6,28.76,ENE,78,0.0,0.0,77,0.00,,CLR,0.00,VWS V14.01,2013-06-23 09:53:00,
2013-06-23 04:54:00,77.4,69.6,28.76,East,101,0.0,0.0,77,0.00,,,0.00,VWS V14.01,2013-06-23 09:54:00,
2013-06-23 04:55:00,77.4,69.6,28.76,SE,134,2.2,2.2,77,0.00,,,0.00,VWS V14.01,2013-06-23 09:55:00,
2013-06-23 04:56:00,77.4,69.6,28.76,East,98,0.0,2.2,77,0.00,,,0.00,VWS V14.01,2013-06-23 09:56:00,
2013-06-23 04:57:00,77.4,69.6,28.76,ESE,109,4.9,4.9,77,0.00,,,0.00,VWS V14.01,2013-06-23 09:57:00,
2013-06-23 04:58:00,77.4,69.6,28.76,SE,130,0.0,4.9,77,0.00,,,0.00,VWS V14.01,2013-06-23 09:58:00,
2013-06-23 04:59:00,77.4,69.6,28.76,SE,130,0.0,0.0,77,0.00,,CLR,0.00,VWS V14.01,2013-06-23 09:59:00,
2013-06-23 05:00:00,77.4,69.6,28.76,SE,141,0.0,0.0,77,0.00,,,0.00,VWS V14.01,2013-06-23 10:00:00,
2013-06-23 05:01:00,77.4,69.6,28.76,ESE,120,2.7,2.7,77,0.00,,,0.00,VWS V14.01,2013-06-23 10:01:00,
2013-06-23 05:02:00,77.4,69.6,28.76,East,81,0.0,2.7,77,0.00,,,0.00,VWS V14.01,2013-06-23 10:02:00,
2013-06-23 05:03:00,77.4,69.6,28.76,ESE,105,0.0,0.0,77,0.00,,,0.00,VWS V14.01,2013-06-23 10:03:00,
2013-06-23 05:04:00,77.4,69.6,28.76,SE,138,0.0,2.2,77,0.00,,CLR,0.00,VWS V14.01,2013-06-23 10:04:00,
2013-06-23 05:05:00,77.4,69.6,28.76,ESE,106,0.0,2.2,77,0.00,,,0.00,VWS V14.01,2013-06-23 10:05:00,
2013-06-23 05:06:00,77.4,69.6,28.76,SE,124,0.0,0.0,77,0.00,,,0.00,VWS V14.01,2013-06-23 10:06:00,
2013-06-23 05:07:00,77.4,69.6,28.76,ESE,108,0.0,3.1,77,0.00,,,0.00,VWS V14.01,2013-06-23 10:07:00,
2013-06-23 05:08:00,77.4,69.6,28.76,SSE,162,0.0,0.0,77,0.00,,,0.00,VWS V14.01,2013-06-23 10:08:00,
2013-06-23 05:09:00,77.4,69.6,28.76,ESE,117,0.0,0.0,77,0.00,,CLR,0.00,VWS V14.01,2013-06-23 10:09:00,
2013-06-23 05:10:00,77.4,69.6,28.76,SSW,203,0.0,0.0,77,0.00,,,0.00,VWS V14.01,2013-06-23 10:10:00,
2013-06-23 05:11:00,77.4,69.6,28.76,SSE,160,0.0,0.0,77,0.00,,,0.00,VWS V14.01,2013-06-23 10:11:00,
2013-06-23 05:12:00,77.4,69.6,28.76,South,171,0.0,0.0,77,0.00,,,0.00,VWS V14.01,2013-06-23 10:12:00,
2013-06-23 05:13:00,77.2,69.4,28.76,SE,134,0.0,0.0,77,0.00,,,0.00,VWS V14.01,2013-06-23 10:13:00,
2013-06-23 05:14:00,77.2,69.4,28.76,SE,125,0.0,0.0,77,0.00,,CLR,0.00,VWS V14.01,2013-06-23 10:14:00,
2013-06-23 05:15:00,77.2,69.4,28.76,ESE,118,0.0,3.1,77,0.00,,,0.00,VWS V14.01,2013-06-23 10:15:00,
2013-06-23 05:16:00,77.2,69.4,28.76,SE,141,0.0,0.0,77,0.00,,,0.00,VWS V14.01,2013-06-23 10:16:00,
2013-06-23 05:17:00,77.2,69.4,28.76,SSE,157,2.2,3.6,77,0.00,,,0.00,VWS V14.01,2013-06-23 10:17:00,
2013-06-23 05:18:00,77.2,69.4,28.76,SE,144,0.0,2.2,77,0.00,,,0.00,VWS V14.01,2013-06-23 10:18:00,
2013-06-23 05:19:00,77.2,69.4,28.76,SE,142,3.1,3.1,77,0.00,,CLR,0.00,VWS V14.01,2013-06-23 10:19:00,
2013-06-23 05:20:00,77.2,69.4,28.76,SE,138,5.4,5.4,77,0.00,,,0.00,VWS V14.01,2013-06-23 10:20:00,
2013-06-23 05:21:00,77.2,69.4,28.76,SE,145,0.0,5.4,77,0.00,,,0.00,VWS V14.01,2013-06-23 10:21:00,
2013-06-23 05:22:00,77.2,69.4,28.76,SSE,156,0.0,0.0,77,0.00,,,0.00,VWS V14.01,2013-06-23 10:22:00,
2013-06-23 05:23:00,77.0,69.6,28.76,SE,145,0.0,4.0,78,0.00,,,0.00,VWS V14.01,2013-06-23 10:23:00,
2013-06-23 05:24:00,77.0,69.6,28.76,ESE,105,0.0,4.0,78,0.00,,CLR,0.00,VWS V14.01,2013-06-23 10:24:00,
2013-06-23 05:25:00,77.0,69.6,28.76,ESE,119,0.0,2.2,78,0.00,,,0.00,VWS V14.01,2013-06-23 10:25:00,
2013-06-23 05:26:00,77.0,69.6,28.76,South,172,0.0,0.0,78,0.00,,,0.00,VWS V14.01,2013-06-23 10:26:00,
2013-06-23 05:27:00,77.0,69.6,28.76,SSE,159,0.0,0.0,78,0.00,,,0.00,VWS V14.01,2013-06-23 10:27:00,
2013-06-23 05:28:00,77.0,69.6,28.76,SE,125,4.5,4.5,78,0.00,,,0.00,VWS V14.01,2013-06-23 10:28:00,
2013-06-23 05:29:00,77.0,69.6,28.76,SE,138,0.0,4.5,78,0.00,,CLR,0.00,VWS V14.01,2013-06-23 10:29:00,
2013-06-23 05:30:00,77.2,69.8,28.76,SE,131,2.2,2.2,78,0.00,,,0.00,VWS V14.01,2013-06-23 10:30:00,
2013-06-23 05:31:00,77.2,69.8,28.76,SE,145,0.0,2.2,78,0.00,,,0.00,VWS V14.01,2013-06-23 10:31:00,
2013-06-23 05:32:00,77.2,69.8,28.76,East,99,3.1,3.1,78,0.00,,,0.00,VWS V14.01,2013-06-23 10:32:00,
2013-06-23 05:33:00,77.2,69.8,28.76,SE,129,3.1,3.1,78,0.00,,,0.00,VWS V14.01,2013-06-23 10:33:00,
2013-06-23 05:34:00,77.2,69.4,28.76,SSE,160,3.1,3.6,77,0.00,,CLR,0.00,VWS V14.01,2013-06-23 10:34:00,
2013-06-23 05:35:00,77.2,69.4,28.76,East,95,0.0,3.1,77,0.00,,,0.00,VWS V14.01,2013-06-23 10:35:00,
2013-06-23 05:36:00,77.2,69.4,28.76,SSE,160,0.0,5.4,77,0.00,,,0.00,VWS V14.01,2013-06-23 10:36:00,
2013-06-23 05:37:00,77.2,69.4,28.76,SE,145,0.0,0.0,77,0.00,,,0.00,VWS V14.01,2013-06-23 10:37:00,
2013-06-23 05:38:00,77.0,69.2,28.76,SSE,148,4.0,4.0,77,0.00,,,0.00,VWS V14.01,2013-06-23 10:38:00,
2013-06-23 05:39:00,77.0,69.2,28.76,SE,142,0.0,4.0,77,0.00,,CLR,0.00,VWS V14.01,2013-06-23 10:39:00,
2013-06-23 05:40:00,77.0,69.2,28.76,SE,137,0.0,2.7,77,0.00,,,0.00,VWS V14.01,2013-06-23 10:40:00,
2013-06-23 05:41:00,77.0,69.2,28.76,ESE,121,2.7,3.1,77,0.00,,,0.00,VWS V14.01,2013-06-23 10:41:00,
2013-06-23 05:42:00,77.0,69.2,28.76,ESE,105,0.0,2.7,77,0.00,,,0.00,VWS V14.01,2013-06-23 10:42:00,
2013-06-23 05:43:00,77.0,69.2,28.76,SSE,161,0.0,0.0,77,0.00,,,0.00,VWS V14.01,2013-06-23 10:43:00,
2013-06-23 05:44:00,77.0,69.2,28.76,South,184,0.0,0.0,77,0.00,,CLR,0.00,VWS V14.01,2013-06-23 10:44:00,
2013-06-23 05:45:00,77.0,69.2,28.76,SSW,194,0.0,3.6,77,0.00,,,0.00,VWS V14.01,2013-06-23 10:45:00,
2013-06-23 05:46:00,77.0,69.2,28.76,South,176,0.0,3.6,77,0.00,,,0.00,VWS V14.01,2013-06-23 10:46:00,
2013-06-23 05:47:00,77.0,69.2,28.76,SSE,156,2.2,10.5,77,0.00,,,0.00,VWS V14.01,2013-06-23 10:47:00,
2013-06-23 05:48:00,77.0,69.2,28.76,SSE,157,0.0,2.7,77,0.00,,,0.00,VWS V14.01,2013-06-23 10:48:00,
2013-06-23 05:49:00,77.0,69.2,28.76,South,183,0.0,0.0,77,0.00,,CLR,0.00,VWS V14.01,2013-06-23 10:49:00,
2013-06-23 05:50:00,77.0,69.2,28.76,South,186,2.7,2.7,77,0.00,,,0.00,VWS V14.01,2013-06-23 10:50:00,
2013-06-23 05:51:00,77.0,69.2,28.76,SSW,196,0.0,4.0,77,0.00,,,0.00,VWS V14.01,2013-06-23 10:51:00,
2013-06-23 05:52:00,77.0,69.2,28.76,South,186,0.0,2.7,77,0.00,,,0.00,VWS V14.01,2013-06-23 10:52:00,
2013-06-23 05:53:00,77.0,69.2,28.76,SW,228,0.0,2.7,77,0.00,,,0.00,VWS V14.01,2013-06-23 10:53:00,
2013-06-23 05:54:00,77.2,69.4,28.76,SSE,162,4.0,4.0,77,0.00,,CLR,0.00,VWS V14.01,2013-06-23 10:54:00,
2013-06-23 05:55:00,77.2,69.4,28.76,South,183,0.0,4.0,77,0.00,,,0.00,VWS V14.01,2013-06-23 10:55:00,
2013-06-23 05:56:00,77.2,69.4,28.76,SE,142,2.2,2.2,77,0.00,,,0.00,VWS V14.01,2013-06-23 10:56:00,
2013-06-23 05:57:00,77.2,69.4,28.76,SE,137,4.5,4.5,77,0.00,,,0.00,VWS V14.01,2013-06-23 10:57:00,
2013-06-23 05:58:00,77.2,69.4,28.76,SSE,161,3.1,4.5,77,0.00,,,0.00,VWS V14.01,2013-06-23 10:58:00,
2013-06-23 05:59:00,77.0,69.2,28.76,South,169,0.0,2.2,77,0.00,,CLR,0.00,VWS V14.01,2013-06-23 10:59:00,
2013-06-23 06:00:00,77.0,69.2,28.76,SSW,196,0.0,2.2,77,0.00,,,0.00,VWS V14.01,2013-06-23 11:00:00,
2013-06-23 06:01:00,77.0,69.2,28.76,SSE,165,0.0,0.0,77,0.00,,,0.00,VWS V14.01,2013-06-23 11:01:00,
2013-06-23 06:02:00,77.0,69.2,28.76,SSW,208,0.0,2.7,77,0.00,,,0.00,VWS V14.01,2013-06-23 11:02:00,
2013-06-23 06:03:00,77.0,69.2,28.76,SSE,165,0.0,2.7,77,0.00,,,0.00,VWS V14.01,2013-06-23 11:03:00,
2013-06-23 06:04:00,77.2,69.4,28.76,South,177,0.0,0.0,77,0.00,,SCT250,0.00,VWS V14.01,2013-06-23 11:04:00,
2013-06-23 06:05:00,77.2,69.4,28.76,SE,130,0.0,2.2,77,0.00,,,0.00,VWS V14.01,2013-06-23 11:05:00,
2013-06-23 06:06:00,77.2,69.4,28.76,SSE,154,0.0,3.1,77,0.00,,,0.00,VWS V14.01,2013-06-23 11:06:00,
2013-06-23 06:07:00,77.2,69.4,28.76,SSE,152,2.7,2.7,77,0.00,,,0.00,VWS V14.01,2013-06-23 11:07:00,
2013-06-23 06:08:00,77.2,69.4,28.76,South,176,0.0,3.6,77,0.00,,,0.00,VWS V14.01,2013-06-23 11:08:00,
2013-06-23 06:09:00,77.2,69.4,28.76,SE,134,0.0,0.0,77,0.00,,SCT250,0.00,VWS V14.01,2013-06-23 11:09:00,
2013-06-23 06:10:00,77.2,69.4,28.76,SSE,161,0.0,0.0,77,0.00,,,0.00,VWS V14.01,2013-06-23 11:10:00,
2013-06-23 06:11:00,77.2,69.4,28.76,SE,130,4.9,4.9,77,0.00,,,0.00,VWS V14.01,2013-06-23 11:11:00,
2013-06-23 06:12:00,77.2,69.4,28.76,SE,131,0.0,4.9,77,0.00,,,0.00,VWS V14.01,2013-06-23 11:12:00,
2013-06-23 06:13:00,77.4,69.6,28.76,SSE,155,0.0,2.2,77,0.00,,,0.00,VWS V14.01,2013-06-23 11:13:00,
2013-06-23 06:14:00,77.4,69.6,28.76,SSE,147,0.0,0.0,77,0.00,,SCT250,0.00,VWS V14.01,2013-06-23 11:14:00,
2013-06-23 06:15:00,77.4,69.6,28.76,SSE,166,3.1,3.1,77,0.00,,,0.00,VWS V14.01,2013-06-23 11:15:00,
2013-06-23 06:16:00,77.4,69.6,28.76,SSW,210,0.0,3.1,77,0.00,,,0.00,VWS V14.01,2013-06-23 11:16:00,
2013-06-23 06:17:00,77.4,69.6,28.76,South,187,0.0,0.0,77,0.00,,,0.00,VWS V14.01,2013-06-23 11:17:00,
2013-06-23 06:18:00,77.4,69.6,28.76,South,176,0.0,0.0,77,0.00,,,0.00,VWS V14.01,2013-06-23 11:18:00,
2013-06-23 06:19:00,77.4,69.6,28.76,SSE,154,0.0,0.0,77,0.00,,SCT250,0.00,VWS V14.01,2013-06-23 11:19:00,
2013-06-23 06:20:00,77.4,69.6,28.76,SSW,199,0.0,0.0,77,0.00,,,0.00,VWS V14.01,2013-06-23 11:20:00,
2013-06-23 06:21:00,77.4,69.6,28.76,SE,146,0.0,2.7,77,0.00,,,0.00,VWS V14.01,2013-06-23 11:21:00,
2013-06-23 06:22:00,77.4,69.6,28.76,SSE,155,0.0,0.0,77,0.00,,,0.00,VWS V14.01,2013-06-23 11:22:00,
2013-06-23 06:23:00,77.4,69.6,28.76,South,177,3.1,3.1,77,0.00,,,0.00,VWS V14.01,2013-06-23 11:23:00,
2013-06-23 06:24:00,77.5,69.8,28.76,South,187,3.6,3.6,77,0.00,,SCT250,0.00,VWS V14.01,2013-06-23 11:24:00,
2013-06-23 06:25:00,77.5,69.8,28.76,South,186,0.0,3.6,77,0.00,,,0.00,VWS V14.01,2013-06-23 11:25:00,
2013-06-23 06:26:00,77.5,69.4,28.76,South,173,4.9,4.9,76,0.00,,,0.00,VWS V14.01,2013-06-23 11:26:00,
2013-06-23 06:27:00,77.5,69.4,28.76,SSE,152,0.0,6.3,76,0.00,,,0.00,VWS V14.01,2013-06-23 11:27:00,
2013-06-23 06:28:00,77.5,69.4,28.76,South,173,4.0,4.0,76,0.00,,,0.00,VWS V14.01,2013-06-23 11:28:00,
2013-06-23 06:29:00,77.7,69.6,28.76,SE,144,0.0,0.0,76,0.00,,SCT250,0.00,VWS V14.01,2013-06-23 11:29:00,
2013-06-23 06:30:00,77.7,69.6,28.76,SE,137,4.9,4.9,76,0.00,,,0.00,VWS V14.01,2013-06-23 11:30:00,
2013-06-23 06:31:00,77.7,69.6,28.76,SE,126,0.0,6.3,76,0.00,,,0.00,VWS V14.01,2013-06-23 11:31:00,
2013-06-23 06:32:00,77.7,69.6,28.76,SSE,168,0.0,2.2,76,0.00,,,0.00,VWS V14.01,2013-06-23 11:32:00,
2013-06-23 06:33:00,77.7,69.6,28.76,SSE,155,0.0,4.0,76,0.00,,,0.00,VWS V14.01,2013-06-23 11:33:00,
2013-06-23 06:34:00,77.7,69.6,28.76,SSE,153,2.2,2.2,76,0.00,,SCT250,0.00,VWS V14.01,2013-06-23 11:34:00,
2013-06-23 06:35:00,77.7,69.6,28.76,SSE,149,3.1,3.1,76,0.00,,,0.00,VWS V14.01,2013-06-23 11:35:00,
2013-06-23 06:36:00,77.7,69.6,28.76,SE,132,0.0,3.1,76,0.00,,,0.00,VWS V14.01,2013-06-23 11:36:00,
2013-06-23 06:37:00,77.9,69.7,28.76,SSE,155,0.0,3.1,76,0.00,,,0.00,VWS V14.01,2013-06-23 11:37:00,
2013-06-23 06:38:00,77.9,69.7,28.76,ESE,118,0.0,0.0,76,0.00,,,0.00,VWS V14.01,2013-06-23 11:38:00,
2013-06-23 06:39:00,77.9,69.7,28.76,SSE,160,0.0,5.4,76,0.00,,SCT250,0.00,VWS V14.01,2013-06-23 11:39:00,
2013-06-23 06:40:00,77.9,69.7,28.76,SSE,147,0.0,5.4,76,0.00,,,0.00,VWS V14.01,2013-06-23 11:40:00,
2013-06-23 06:41:00,77.9,69.7,28.76,South,181,0.0,2.2,76,0.00,,,0.00,VWS V14.01,2013-06-23 11:41:00,
2013-06-23 06:42:00,78.1,69.9,28.76,SSW,194,0.0,2.2,76,0.00,,,0.00,VWS V14.01,2013-06-23 11:42:00,
2013-06-23 06:43:00,78.1,69.9,28.76,SE,126,0.0,0.0,76,0.00,,,0.00,VWS V14.01,2013-06-23 11:43:00,
2013-06-23 06:44:00,78.1,69.9,28.76,South,176,0.0,0.0,76,0.00,,,0.00,VWS V14.01,2013-06-23 11:44:00,
2013-06-23 06:45:00,78.1,69.9,28.76,SSE,151,4.0,4.0,76,0.00,,SCT250,0.00,VWS V14.01,2013-06-23 11:45:00,
2013-06-23 06:46:00,78.3,69.7,28.76,SE,134,4.9,4.9,75,0.00,,,0.00,VWS V14.01,2013-06-23 11:46:00,
2013-06-23 06:47:00,78.3,69.7,28.76,SSW,199,3.1,4.9,75,0.00,,,0.00,VWS V14.01,2013-06-23 11:47:00,
2013-06-23 06:48:00,78.3,69.7,28.76,SSE,158,0.0,3.1,75,0.00,,,0.00,VWS V14.01,2013-06-23 11:48:00,
2013-06-23 06:49:00,78.3,69.7,28.76,SSE,161,0.0,3.1,75,0.00,,,0.00,VWS V14.01,2013-06-23 11:49:00,
2013-06-23 06:50:00,78.3,69.7,28.76,South,176,0.0,3.1,75,0.00,,SCT250,0.00,VWS V14.01,2013-06-23 11:50:00,
2013-06-23 06:51:00,78.1,69.5,28.76,South,190,0.0,3.1,75,0.00,,,0.00,VWS V14.01,2013-06-23 11:51:00,
2013-06-23 06:52:00,78.1,69.5,28.76,SSE,164,3.6,4.0,75,0.00,,,0.00,VWS V14.01,2013-06-23 11:52:00,
2013-06-23 06:53:00,78.3,69.7,28.76,South,172,2.2,3.6,75,0.00,,,0.00,VWS V14.01,2013-06-23 11:53:00,
2013-06-23 06:54:00,78.3,69.7,28.76,SSW,192,0.0,3.1,75,0.00,,,0.00,VWS V14.01,2013-06-23 11:54:00,
2013-06-23 06:55:00,78.3,69.7,28.76,South,169,0.0,0.0,75,0.00,,SCT250,0.00,VWS V14.01,2013-06-23 11:55:00,
2013-06-23 06:56:00,78.3,69.7,28.76,SSE,153,0.0,2.7,75,0.00,,,0.00,VWS V14.01,2013-06-23 11:56:00,
2013-06-23 06:57:00,78.3,69.7,28.76,South,172,0.0,0.0,75,0.00,,,0.00,VWS V14.01,2013-06-23 11:57:00,
2013-06-23 06:58:00,78.3,69.7,28.76,South,171,3.6,3.6,75,0.00,,,0.00,VWS V14.01,2013-06-23 11:58:00,
2013-06-23 06:59:00,78.3,69.7,28.76,SSW,192,0.0,3.6,75,0.00,,,0.00,VWS V14.01,2013-06-23 11:59:00,
2013-06-23 07:00:00,78.4,69.9,28.76,South,175,2.7,3.1,75,0.00,,SCT250,0.00,VWS V14.01,2013-06-23 12:00:00,
2013-06-23 07:01:00,78.3,69.7,28.76,SSE,162,2.2,3.1,75,0.00,,,0.00,VWS V14.01,2013-06-23 12:01:00,
2013-06-23 07:02:00,78.3,69.7,28.76,South,191,2.7,4.0,75,0.00,,,0.00,VWS V14.01,2013-06-23 12:02:00,
2013-06-23 07:03:00,78.3,69.7,28.76,South,169,0.0,2.7,75,0.00,,,0.00,VWS V14.01,2013-06-23 12:03:00,
2013-06-23 07:04:00,78.4,69.9,28.76,SSE,152,0.0,0.0,75,0.00,,,0.00,VWS V14.01,2013-06-23 12:04:00,
2013-06-23 07:05:00,78.4,69.9,28.76,South,170,2.2,2.2,75,0.00,,SCT250,0.00,VWS V14.01,2013-06-23 12:05:00,
2013-06-23 07:06:00,78.4,69.9,28.76,SSW,194,0.0,2.2,75,0.00,,,0.00,VWS V14.01,2013-06-23 12:06:00,
2013-06-23 07:07:00,78.4,69.9,28.76,South,174,0.0,3.6,75,0.00,,,0.00,VWS V14.01,2013-06-23 12:07:00,
2013-06-23 07:08:00,78.4,69.9,28.76,SSW,204,4.9,4.9,75,0.00,,,0.00,VWS V14.01,2013-06-23 12:08:00,
2013-06-23 07:09:00,78.4,69.9,28.76,SSE,163,0.0,6.3,75,0.00,,,0.00,VWS V14.01,2013-06-23 12:09:00,
2013-06-23 07:10:00,78.4,69.9,28.76,South,185,0.0,0.0,75,0.00,,SCT250,0.00,VWS V14.01,2013-06-23 12:10:00,
2013-06-23 07:11:00,78.4,69.9,28.76,South,185,0.0,3.6,75,0.00,,,0.00,VWS V14.01,2013-06-23 12:11:00,
2013-06-23 07:12:00,78.6,70.0,28.76,SSE,156,2.7,3.1,75,0.00,,,0.00,VWS V14.01,2013-06-23 12:12:00,
2013-06-23 07:13:00,78.6,70.0,28.76,SSE,163,0.0,2.7,75,0.00,,,0.00,VWS V14.01,2013-06-23 12:13:00,
2013-06-23 07:14:00,78.6,70.0,28.76,SSW,203,0.0,3.1,75,0.00,,,0.00,VWS V14.01,2013-06-23 12:14:00,
2013-06-23 07:15:00,78.8,69.8,28.76,South,172,0.0,5.8,74,0.00,,SCT250,0.00,VWS V14.01,2013-06-23 12:15:00,
2013-06-23 07:16:00,78.8,69.8,28.76,SSE,157,0.0,5.8,74,0.00,,,0.00,VWS V14.01,2013-06-23 12:16:00,
2013-06-23 07:17:00,78.8,69.8,28.76,SSW,201,0.0,3.1,74,0.00,,,0.00,VWS V14.01,2013-06-23 12:17:00,
2013-06-23 07:18:00,78.8,69.8,28.76,SSE,148,0.0,4.0,74,0.00,,,0.00,VWS V14.01,2013-06-23 12:18:00,
2013-06-23 07:19:00,78.8,69.8,28.76,SSE,166,0.0,2.2,74,0.00,,,0.00,VWS V14.01,2013-06-23 12:19:00,
2013-06-23 07:20:00,78.6,69.7,28.76,SSW,197,2.7,2.7,74,0.00,,SCT250,0.00,VWS V14.01,2013-06-23 12:20:00,
2013-06-23 07:21:00,78.6,69.6,28.76,South,187,3.1,3.1,74,0.00,,,0.00,VWS V14.01,2013-06-23 12:21:00,
2013-06-23 07:22:00,78.6,69.6,28.76,South,191,2.2,4.0,74,0.00,,,0.00,VWS V14.01,2013-06-23 12:22:00,
2013-06-23 07:23:00,78.6,69.6,28.76,South,186,2.2,4.0,74,0.00,,,0.00,VWS V14.01,2013-06-23 12:23:00,
2013-06-23 07:24:00,78.6,69.6,28.76,South,174,5.4,6.3,74,0.00,,,0.00,VWS V14.01,2013-06-23 12:24:00,
2013-06-23 07:25:00,78.4,69.5,28.76,SSW,209,4.0,4.0,74,0.00,,SCT250,0.00,VWS V14.01,2013-06-23 12:25:00,
2013-06-23 07:26:00,78.4,69.5,28.76,SSW,197,2.7,4.0,74,0.00,,,0.00,VWS V14.01,2013-06-23 12:26:00,
2013-06-23 07:27:00,78.4,69.5,28.76,South,186,5.4,6.3,74,0.00,,,0.00,VWS V14.01,2013-06-23 12:27:00,
2013-06-23 07:28:00,78.4,69.5,28.76,South,171,0.0,5.4,74,0.00,,,0.00,VWS V14.01,2013-06-23 12:28:00,
2013-06-23 07:29:00,78.4,69.5,28.76,SW,233,0.0,2.2,74,0.00,,,0.00,VWS V14.01,2013-06-23 12:29:00,
2013-06-23 07:30:00,78.4,69.5,28.76,SSW,203,0.0,0.0,74,0.00,,,0.00,VWS V14.01,2013-06-23 12:30:00,
2013-06-23 07:31:00,78.4,69.5,28.76,SW,220,0.0,0.0,74,0.00,,SCT250,0.00,VWS V14.01,2013-06-23 12:31:00,
2013-06-23 07:32:00,78.4,69.5,28.79,SW,214,0.0,3.1,74,0.00,,,0.00,VWS V14.01,2013-06-23 12:32:00,
2013-06-23 07:33:00,78.4,69.5,28.79,South,176,0.0,3.1,74,0.00,,,0.00,VWS V14.01,2013-06-23 12:33:00,
2013-06-23 07:34:00,78.3,69.3,28.79,SW,227,0.0,3.6,74,0.00,,,0.00,VWS V14.01,2013-06-23 12:34:00,
2013-06-23 07:35:00,78.3,69.3,28.79,SW,223,0.0,0.0,74,0.00,,,0.00,VWS V14.01,2013-06-23 12:35:00,
2013-06-23 07:36:00,78.3,69.3,28.79,SW,223,0.0,2.7,74,0.00,,SCT250,0.00,VWS V14.01,2013-06-23 12:36:00,
2013-06-23 07:37:00,78.3,69.3,28.79,South,177,0.0,3.1,74,0.00,,,0.00,VWS V14.01,2013-06-23 12:37:00,
2013-06-23 07:38:00,78.3,69.3,28.79,SSW,210,2.7,3.1,74,0.00,,,0.00,VWS V14.01,2013-06-23 12:38:00,
2013-06-23 07:39:00,78.3,69.3,28.79,WSW,250,2.7,2.7,74,0.00,,,0.00,VWS V14.01,2013-06-23 12:39:00,
2013-06-23 07:40:00,78.3,69.3,28.79,SSW,209,2.2,3.1,74,0.00,,,0.00,VWS V14.01,2013-06-23 12:40:00,
2013-06-23 07:41:00,78.3,69.3,28.79,WSW,242,3.1,5.4,74,0.00,,SCT250,0.00,VWS V14.01,2013-06-23 12:41:00,
2013-06-23 07:42:00,78.3,69.3,28.79,SSW,204,10.1,15.4,74,0.00,,,0.00,VWS V14.01,2013-06-23 12:42:00,
2013-06-23 07:43:00,78.1,68.3,28.79,WSW,238,2.7,10.1,72,0.00,,,0.00,VWS V14.01,2013-06-23 12:43:00,
2013-06-23 07:44:00,77.9,66.9,28.79,WSW,251,0.0,8.1,69,0.00,,,0.00,VWS V14.01,2013-06-23 12:44:00,
2013-06-23 07:45:00,77.5,65.7,28.79,West,266,2.2,4.9,67,0.00,,,0.00,VWS V14.01,2013-06-23 12:45:00,
2013-06-23 07:46:00,77.5,65.7,28.82,WNW,292,2.7,2.7,67,0.00,,SCT250,0.00,VWS V14.01,2013-06-23 12:46:00,
2013-06-23 07:47:00,77.2,65.4,28.82,WSW,255,0.0,3.1,67,0.00,,,0.00,VWS V14.01,2013-06-23 12:47:00,
2013-06-23 07:48:00,76.6,64.9,28.82,WSW,243,8.7,8.7,67,0.00,,,0.00,VWS V14.01,2013-06-23 12:48:00,
2013-06-23 07:49:00,76.1,64.4,28.82,WNW,302,2.7,8.7,67,0.00,,,0.00,VWS V14.01,2013-06-23 12:49:00,
2013-06-23 07:50:00,76.1,64.4,28.82,WNW,292,3.1,6.3,67,0.00,,,0.00,VWS V14.01,2013-06-23 12:50:00,
2013-06-23 07:51:00,75.7,64.4,28.82,WNW,298,0.0,7.6,68,0.00,,SCT250,0.00,VWS V14.01,2013-06-23 12:51:00,
2013-06-23 07:52:00,75.2,63.9,28.82,West,271,0.0,6.3,68,0.00,,,0.00,VWS V14.01,2013-06-23 12:52:00,
2013-06-23 07:53:00,74.8,64.0,28.82,West,263,3.6,5.8,69,0.00,,,0.00,VWS V14.01,2013-06-23 12:53:00,
2013-06-23 07:54:00,74.8,64.0,28.82,West,270,6.3,6.3,69,0.00,,,0.00,VWS V14.01,2013-06-23 12:54:00,
2013-06-23 07:55:00,74.5,64.1,28.82,WNW,282,5.4,6.3,70,0.00,,,0.00,VWS V14.01,2013-06-23 12:55:00,
2013-06-23 07:56:00,74.1,63.7,28.82,WNW,289,2.2,5.4,70,0.00,,SCT250,0.00,VWS V14.01,2013-06-23 12:56:00,
2013-06-23 07:57:00,73.6,63.6,28.82,WNW,284,0.0,2.7,71,0.00,,,0.00,VWS V14.01,2013-06-23 12:57:00,
2013-06-23 07:58:00,73.6,63.6,28.82,NW,316,0.0,4.9,71,0.00,,,0.00,VWS V14.01,2013-06-23 12:58:00,
2013-06-23 07:59:00,73.2,64.1,28.82,WNW,285,4.0,7.2,73,0.00,,,0.00,VWS V14.01,2013-06-23 12:59:00,
2013-06-23 08:00:00,73.0,64.3,28.82,WNW,298,4.0,7.6,74,0.00,,,0.00,VWS V14.01,2013-06-23 13:00:00,
2013-06-23 08:01:00,72.7,64.3,28.82,West,275,4.5,4.5,75,0.00,,OVC080,0.00,VWS V14.01,2013-06-23 13:01:00,
2013-06-23 08:02:00,72.5,64.1,28.82,NW,310,0.0,4.5,75,0.00,,,0.00,VWS V14.01,2013-06-23 13:02:00,
2013-06-23 08:03:00,72.5,64.1,28.82,NNW,327,0.0,2.2,75,0.00,,,0.00,VWS V14.01,2013-06-23 13:03:00,
2013-06-23 08:04:00,72.3,64.3,28.82,West,279,0.0,2.7,76,0.00,,,0.00,VWS V14.01,2013-06-23 13:04:00,
2013-06-23 08:05:00,72.1,64.2,28.82,NNW,341,0.0,0.0,76,0.00,,,0.00,VWS V14.01,2013-06-23 13:05:00,
2013-06-23 08:06:00,72.0,64.4,28.82,North,349,0.0,0.0,77,0.00,,OVC080,0.00,VWS V14.01,2013-06-23 13:06:00,
2013-06-23 08:07:00,72.0,64.4,28.82,NNW,346,4.5,4.5,77,0.00,,,0.00,VWS V14.01,2013-06-23 13:07:00,
2013-06-23 08:08:00,72.0,64.4,28.82,NW,314,2.2,4.5,77,0.00,,,0.00,VWS V14.01,2013-06-23 13:08:00,
2013-06-23 08:09:00,72.0,64.4,28.82,North,353,2.2,3.6,77,0.00,,,0.00,VWS V14.01,2013-06-23 13:09:00,
2013-06-23 08:10:00,71.8,64.6,28.82,NNW,338,0.0,2.2,78,0.00,,,0.00,VWS V14.01,2013-06-23 13:10:00,
2013-06-23 08:11:00,71.8,64.6,28.82,NW,307,0.0,0.0,78,0.00,,OVC080,0.00,VWS V14.01,2013-06-23 13:11:00,
2013-06-23 08:12:00,71.8,64.6,28.82,WNW,297,0.0,3.1,78,0.00,,,0.00,VWS V14.01,2013-06-23 13:12:00,
2013-06-23 08:13:00,71.8,64.6,28.82,NW,305,2.2,2.2,78,0.00,,,0.00,VWS V14.01,2013-06-23 13:13:00,
2013-06-23 08:14:00,71.8,64.6,28.82,NNW,333,0.0,2.7,78,0.00,,,0.00,VWS V14.01,2013-06-23 13:14:00,
2013-06-23 08:15:00,71.8,64.6,28.82,NW,306,0.0,0.0,78,0.00,,,0.00,VWS V14.01,2013-06-23 13:15:00,
2013-06-23 08:16:00,71.8,64.2,28.82,West,272,0.0,0.0,77,0.00,,OVC080,0.00,VWS V14.01,2013-06-23 13:16:00,
2013-06-23 08:17:00,71.8,64.2,28.82,NW,312,0.0,0.0,77,0.00,,,0.00,VWS V14.01,2013-06-23 13:17:00,
2013-06-23 08:18:00,71.8,64.2,28.82,WSW,248,0.0,0.0,77,0.00,,,0.00,VWS V14.01,2013-06-23 13:18:00,
2013-06-23 08:19:00,71.8,64.2,28.82,SW,236,0.0,0.0,77,0.00,,,0.00,VWS V14.01,2013-06-23 13:19:00,
2013-06-23 08:20:00,71.8,64.2,28.82,WSW,237,0.0,0.0,77,0.00,,,0.00,VWS V14.01,2013-06-23 13:20:00,
2013-06-23 08:21:00,71.8,64.6,28.82,WSW,243,0.0,0.0,78,0.00,,OVC080,0.00,VWS V14.01,2013-06-23 13:21:00,
2013-06-23 08:22:00,72.0,64.7,28.82,WSW,243,0.0,0.0,78,0.00,,,0.00,VWS V14.01,2013-06-23 13:22:00,
2013-06-23 08:23:00,71.8,64.6,28.82,WSW,244,0.0,0.0,78,0.00,,,0.00,VWS V14.01,2013-06-23 13:23:00,
2013-06-23 08:24:00,71.8,64.9,28.82,WSW,243,0.0,0.0,79,0.00,,,0.00,VWS V14.01,2013-06-23 13:24:00,
2013-06-23 08:25:00,71.8,64.9,28.82,West,261,0.0,0.0,79,0.00,,,0.00,VWS V14.01,2013-06-23 13:25:00,
2013-06-23 08:26:00,71.8,64.9,28.82,West,261,0.0,0.0,79,0.00,,OVC080,0.00,VWS V14.01,2013-06-23 13:26:00,
2013-06-23 08:27:00,71.8,64.9,28.82,West,261,0.0,0.0,79,0.00,,,0.00,VWS V14.01,2013-06-23 13:27:00,
2013-06-23 08:28:00,71.8,64.9,28.82,West,261,0.0,0.0,79,0.00,,,0.00,VWS V14.01,2013-06-23 13:28:00,
2013-06-23 08:29:00,71.8,64.9,28.82,West,261,0.0,0.0,79,0.00,,,0.00,VWS V14.01,2013-06-23 13:29:00,
2013-06-23 08:30:00,71.8,65.3,28.82,SSW,192,0.0,0.0,80,0.00,,,0.00,VWS V14.01,2013-06-23 13:30:00,
2013-06-23 08:31:00,71.8,65.3,28.85,ESE,109,0.0,0.0,80,0.00,,,0.00,VWS V14.01,2013-06-23 13:31:00,
2013-06-23 08:32:00,71.8,65.3,28.85,ESE,109,0.0,0.0,80,0.00,,OVC080,0.00,VWS V14.01,2013-06-23 13:32:00,
2013-06-23 08:33:00,72.0,65.5,28.85,ESE,109,0.0,0.0,80,0.00,,,0.00,VWS V14.01,2013-06-23 13:33:00,
2013-06-23 08:34:00,72.0,65.5,28.85,ESE,109,0.0,0.0,80,0.00,,,0.00,VWS V14.01,2013-06-23 13:34:00,
2013-06-23 08:35:00,72.0,65.5,28.85,ESE,109,0.0,0.0,80,0.00,,,0.00,VWS V14.01,2013-06-23 13:35:00,
2013-06-23 08:36:00,72.0,65.5,28.85,ESE,109,0.0,0.0,80,0.00,,,0.00,VWS V14.01,2013-06-23 13:36:00,
2013-06-23 08:37:00,72.0,65.5,28.85,ESE,109,0.0,0.0,80,0.00,,OVC080,0.00,VWS V14.01,2013-06-23 13:37:00,
2013-06-23 08:38:00,72.0,65.5,28.85,ESE,109,0.0,0.0,80,0.00,,,0.00,VWS V14.01,2013-06-23 13:38:00,
2013-06-23 08:39:00,72.0,65.8,28.85,ESE,109,0.0,0.0,81,0.00,,,0.00,VWS V14.01,2013-06-23 13:39:00,
2013-06-23 08:40:00,72.0,65.8,28.85,ESE,109,0.0,0.0,81,0.00,,,0.00,VWS V14.01,2013-06-23 13:40:00,
2013-06-23 08:41:00,72.0,65.8,28.85,ESE,109,0.0,0.0,81,0.00,,,0.00,VWS V14.01,2013-06-23 13:41:00,
2013-06-23 08:42:00,72.0,65.8,28.85,ESE,109,0.0,0.0,81,0.00,,OVC080,0.00,VWS V14.01,2013-06-23 13:42:00,
2013-06-23 08:43:00,71.8,65.6,28.85,ESE,109,0.0,0.0,81,0.00,,,0.00,VWS V14.01,2013-06-23 13:43:00,
2013-06-23 08:44:00,71.8,65.6,28.85,ESE,109,0.0,0.0,81,0.00,,,0.00,VWS V14.01,2013-06-23 13:44:00,
2013-06-23 08:45:00,72.0,65.8,28.85,ESE,109,0.0,0.0,81,0.00,,,0.00,VWS V14.01,2013-06-23 13:45:00,
2013-06-23 08:46:00,72.0,65.8,28.88,ESE,108,0.0,0.0,81,0.00,,,0.00,VWS V14.01,2013-06-23 13:46:00,
2013-06-23 08:47:00,71.8,65.6,28.88,ESE,109,0.0,0.0,81,0.00,,OVC080,0.00,VWS V14.01,2013-06-23 13:47:00,
2013-06-23 08:48:00,72.0,65.8,28.88,ESE,108,0.0,0.0,81,0.00,,,0.00,VWS V14.01,2013-06-23 13:48:00,
2013-06-23 08:49:00,72.0,66.2,28.88,ESE,109,0.0,0.0,82,0.00,,,0.00,VWS V14.01,2013-06-23 13:49:00,
2013-06-23 08:50:00,72.0,66.2,28.88,ESE,109,0.0,0.0,82,0.00,,,0.00,VWS V14.01,2013-06-23 13:50:00,
2013-06-23 08:51:00,72.0,66.2,28.88,ESE,109,0.0,0.0,82,0.00,,,0.00,VWS V14.01,2013-06-23 13:51:00,
2013-06-23 08:52:00,71.8,66.0,28.88,SE,131,0.0,0.0,82,0.00,,OVC080,0.00,VWS V14.01,2013-06-23 13:52:00,
2013-06-23 08:53:00,71.8,66.0,28.88,NNE,27,0.0,0.0,82,0.00,,,0.00,VWS V14.01,2013-06-23 13:53:00,
2013-06-23 08:54:00,72.0,66.2,28.88,NNE,27,0.0,0.0,82,0.00,,,0.00,VWS V14.01,2013-06-23 13:54:00,
2013-06-23 08:55:00,72.0,66.2,28.88,NNE,31,0.0,0.0,82,0.00,,,0.00,VWS V14.01,2013-06-23 13:55:00,
2013-06-23 08:56:00,72.0,66.2,28.88,NNE,31,0.0,0.0,82,0.00,,,0.00,VWS V14.01,2013-06-23 13:56:00,
2013-06-23 08:57:00,72.0,66.2,28.88,NNE,31,0.0,0.0,82,0.00,,OVC080,0.00,VWS V14.01,2013-06-23 13:57:00,
2013-06-23 08:58:00,72.0,66.2,28.88,NNE,31,0.0,0.0,82,0.00,,,0.00,VWS V14.01,2013-06-23 13:58:00,
2013-06-23 08:59:00,72.0,66.2,28.88,SSE,156,0.0,0.0,82,0.00,,,0.00,VWS V14.01,2013-06-23 13:59:00,
2013-06-23 09:00:00,72.0,66.2,28.88,ESE,123,0.0,0.0,82,0.00,,,0.00,VWS V14.01,2013-06-23 14:00:00,
2013-06-23 09:01:00,71.8,66.0,28.88,ESE,123,0.0,0.0,82,0.00,,,0.00,VWS V14.01,2013-06-23 14:01:00,
2013-06-23 09:02:00,71.8,66.0,28.88,ESE,123,0.0,0.0,82,0.00,,OVC080,0.00,VWS V14.01,2013-06-23 14:02:00,
2013-06-23 09:03:00,71.8,66.0,28.88,ESE,123,0.0,0.0,82,0.00,,,0.00,VWS V14.01,2013-06-23 14:03:00,
2013-06-23 09:04:00,71.8,66.0,28.88,ESE,123,0.0,0.0,82,0.00,,,0.00,VWS V14.01,2013-06-23 14:04:00,
2013-06-23 09:05:00,71.8,66.0,28.88,ESE,123,0.0,0.0,82,0.00,,,0.00,VWS V14.01,2013-06-23 14:05:00,
2013-06-23 09:06:00,71.6,65.8,28.88,ESE,123,0.0,0.0,82,0.00,,,0.00,VWS V14.01,2013-06-23 14:06:00,
2013-06-23 09:07:00,71.8,65.6,28.88,ESE,123,0.0,0.0,81,0.00,,OVC080,0.00,VWS V14.01,2013-06-23 14:07:00,
2013-06-23 09:08:00,71.8,65.6,28.88,ESE,123,0.0,0.0,81,0.00,,,0.00,VWS V14.01,2013-06-23 14:08:00,
2013-06-23 09:09:00,71.6,65.5,28.88,ESE,123,0.0,0.0,81,0.00,,,0.00,VWS V14.01,2013-06-23 14:09:00,
2013-06-23 09:10:00,71.6,65.5,28.88,ESE,123,0.0,0.0,81,0.00,,,0.00,VWS V14.01,2013-06-23 14:10:00,
2013-06-23 09:11:00,71.6,65.5,28.88,ESE,123,0.0,0.0,81,0.00,,,0.00,VWS V14.01,2013-06-23 14:11:00,
2013-06-23 09:12:00,71.6,65.5,28.88,ESE,123,0.0,0.0,81,0.00,,OVC080,0.00,VWS V14.01,2013-06-23 14:12:00,
2013-06-23 09:13:00,71.6,65.5,28.88,ESE,123,0.0,0.0,81,0.00,,,0.00,VWS V14.01,2013-06-23 14:13:00,
2013-06-23 09:14:00,71.4,65.3,28.88,ESE,123,0.0,0.0,81,0.00,,,0.00,VWS V14.01,2013-06-23 14:14:00,
2013-06-23 09:15:00,71.4,65.3,28.88,ESE,123,0.0,0.0,81,0.00,,,0.00,VWS V14.01,2013-06-23 14:15:00,
2013-06-23 09:16:00,71.4,65.3,28.88,ESE,123,0.0,0.0,81,0.00,,,0.00,VWS V14.01,2013-06-23 14:16:00,
2013-06-23 09:17:00,71.4,65.3,28.88,ESE,123,0.0,0.0,81,0.00,,OVC080,0.00,VWS V14.01,2013-06-23 14:17:00,
2013-06-23 09:18:00,71.4,65.3,28.88,ESE,123,0.0,0.0,81,0.00,,,0.00,VWS V14.01,2013-06-23 14:18:00,
2013-06-23 09:19:00,71.2,65.1,28.88,ESE,123,0.0,0.0,81,0.00,,,0.00,VWS V14.01,2013-06-23 14:19:00,
2013-06-23 09:20:00,71.2,65.1,28.88,ESE,123,0.0,0.0,81,0.00,,,0.00,VWS V14.01,2013-06-23 14:20:00,
2013-06-23 09:21:00,71.2,65.1,28.88,NNE,28,0.0,0.0,81,0.00,,,0.00,VWS V14.01,2013-06-23 14:21:00,
2013-06-23 09:22:00,71.1,64.9,28.88,NNE,28,0.0,0.0,81,0.00,,OVC080,0.00,VWS V14.01,2013-06-23 14:22:00,
2013-06-23 09:23:00,71.1,64.9,28.88,NNE,28,0.0,0.0,81,0.00,,,0.00,VWS V14.01,2013-06-23 14:23:00,
2013-06-23 09:24:00,70.9,64.8,28.88,NNE,28,0.0,0.0,81,0.00,,,0.00,VWS V14.01,2013-06-23 14:24:00,
2013-06-23 09:25:00,70.9,64.8,28.88,WNW,302,0.0,0.0,81,0.00,,,0.00,VWS V14.01,2013-06-23 14:25:00,
2013-06-23 09:26:00,70.9,64.8,28.88,NW,321,0.0,0.0,81,0.00,,,0.00,VWS V14.01,2013-06-23 14:26:00,
2013-06-23 09:27:00,70.9,64.8,28.88,North,1,0.0,0.0,81,0.00,,OVC080,0.00,VWS V14.01,2013-06-23 14:27:00,
2013-06-23 09:28:00,70.9,64.4,28.88,North,357,0.0,0.0,80,0.00,,,0.00,VWS V14.01,2013-06-23 14:28:00,
2013-06-23 09:29:00,70.9,64.4,28.88,North,357,0.0,0.0,80,0.00,,,0.00,VWS V14.01,2013-06-23 14:29:00,
2013-06-23 09:30:00,70.7,64.2,28.88,North,0,0.0,0.0,80,0.00,,,0.00,VWS V14.01,2013-06-23 14:30:00,
2013-06-23 09:31:00,70.5,64.1,28.85,North,357,0.0,0.0,80,0.00,,,0.00,VWS V14.01,2013-06-23 14:31:00,
2013-06-23 09:32:00,70.5,64.1,28.85,NNE,15,0.0,0.0,80,0.00,,,0.00,VWS V14.01,2013-06-23 14:32:00,
2013-06-23 09:33:00,70.3,63.9,28.85,NNE,13,0.0,0.0,80,0.00,,OVC080,0.00,VWS V14.01,2013-06-23 14:33:00,
2013-06-23 09:34:00,70.3,63.9,28.85,NE,46,0.0,0.0,80,0.00,,,0.00,VWS V14.01,2013-06-23 14:34:00,
2013-06-23 09:35:00,70.3,63.9,28.85,NE,42,0.0,0.0,80,0.00,,,0.00,VWS V14.01,2013-06-23 14:35:00,
2013-06-23 09:37:00,70.2,63.7,28.85,NE,43,0.0,0.0,80,0.00,,,0.00,VWS V14.01,2013-06-23 14:37:00,
2013-06-23 09:38:00,70.2,63.7,28.85,NE,43,0.0,0.0,80,0.00,,OVC080,0.00,VWS V14.01,2013-06-23 14:38:00,
2013-06-23 09:39:00,70.2,63.7,28.85,ENE,69,0.0,0.0,80,0.00,,,0.00,VWS V14.01,2013-06-23 14:39:00,
2013-06-23 09:40:00,70.3,64.2,28.85,ENE,76,0.0,0.0,81,0.00,,,0.00,VWS V14.01,2013-06-23 14:40:00,
2013-06-23 09:41:00,70.5,64.4,28.85,ENE,75,0.0,0.0,81,0.00,,,0.00,VWS V14.01,2013-06-23 14:41:00,
2013-06-23 09:42:00,70.7,64.6,28.85,ESE,121,0.0,0.0,81,0.00,,,0.00,VWS V14.01,2013-06-23 14:42:00,
2013-06-23 09:43:00,70.7,64.6,28.85,East,89,0.0,0.0,81,0.00,,OVC080,0.00,VWS V14.01,2013-06-23 14:43:00,
2013-06-23 09:44:00,70.9,64.8,28.85,ENE,68,0.0,0.0,81,0.00,,,0.00,VWS V14.01,2013-06-23 14:44:00,
2013-06-23 09:45:00,70.9,64.8,28.85,ENE,72,0.0,0.0,81,0.00,,,0.00,VWS V14.01,2013-06-23 14:45:00,
2013-06-23 09:46:00,71.1,64.9,28.85,East,86,0.0,0.0,81,0.00,,,0.00,VWS V14.01,2013-06-23 14:46:00,
2013-06-23 09:47:00,71.1,64.9,28.88,ENE,66,0.0,0.0,81,0.00,,,0.00,VWS V14.01,2013-06-23 14:47:00,
2013-06-23 09:48:00,71.1,64.9,28.88,ENE,75,0.0,0.0,81,0.00,,OVC080,0.00,VWS V14.01,2013-06-23 14:48:00,
2013-06-23 09:49:00,71.2,65.1,28.88,East,98,0.0,0.0,81,0.00,,,0.00,VWS V14.01,2013-06-23 14:49:00,
2013-06-23 09:50:00,71.2,65.1,28.88,ENE,71,0.0,0.0,81,0.00,,,0.00,VWS V14.01,2013-06-23 14:50:00,
2013-06-23 09:51:00,71.2,65.1,28.88,ENE,71,0.0,0.0,81,0.00,,,0.00,VWS V14.01,2013-06-23 14:51:00,
2013-06-23 09:52:00,71.2,65.1,28.88,ENE,59,0.0,0.0,81,0.00,,,0.00,VWS V14.01,2013-06-23 14:52:00,
2013-06-23 09:53:00,71.4,64.9,28.88,East,96,0.0,0.0,80,0.00,,OVC080,0.00,VWS V14.01,2013-06-23 14:53:00,
2013-06-23 09:54:00,71.4,64.9,28.88,ENE,61,0.0,0.0,80,0.00,,,0.00,VWS V14.01,2013-06-23 14:54:00,
2013-06-23 09:55:00,71.4,64.9,28.88,NE,56,0.0,0.0,80,0.00,,,0.00,VWS V14.01,2013-06-23 14:55:00,
2013-06-23 09:56:00,71.2,64.8,28.88,ENE,68,0.0,0.0,80,0.00,,,0.00,VWS V14.01,2013-06-23 14:56:00,
2013-06-23 09:57:00,71.1,64.6,28.88,ENE,65,0.0,0.0,80,0.00,,,0.00,VWS V14.01,2013-06-23 14:57:00,
2013-06-23 09:58:00,70.9,64.4,28.88,ENE,61,0.0,0.0,80,0.00,,OVC080,0.00,VWS V14.01,2013-06-23 14:58:00,
2013-06-23 10:03:00,70.9,64.4,28.88,NE,56,0.0,2.7,80,0.00,,,0.00,VWS V14.01,2013-06-23 15:03:00,
2013-06-23 10:08:00,70.3,63.9,28.88,NE,47,0.0,0.0,80,0.00,,,0.00,VWS V14.01,2013-06-23 15:08:00,
2013-06-23 10:13:00,70.5,64.1,28.88,ENE,65,0.0,0.0,80,0.00,,,0.00,VWS V14.01,2013-06-23 15:13:00,
2013-06-23 10:18:00,70.2,63.7,28.85,NE,39,0.0,0.0,80,0.00,,,0.00,VWS V14.01,2013-06-23 15:18:00,
2013-06-23 10:23:00,69.4,63.4,28.85,NE,44,0.0,0.0,81,0.00,,,0.00,VWS V14.01,2013-06-23 15:23:00,
2013-06-23 10:28:00,69.6,63.9,28.85,East,82,0.0,0.0,82,0.00,,,0.00,VWS V14.01,2013-06-23 15:28:00,
2013-06-23 10:33:00,70.0,64.6,28.82,East,86,0.0,2.7,83,0.00,,,0.00,VWS V14.01,2013-06-23 15:33:00,
2013-06-23 10:38:00,70.0,64.2,28.82,East,81,8.3,8.3,82,0.00,,,0.00,VWS V14.01,2013-06-23 15:38:00,
2013-06-23 10:44:00,70.2,64.4,28.82,NE,54,0.0,4.5,82,0.00,,,0.00,VWS V14.01,2013-06-23 15:44:00,
2013-06-23 10:49:00,70.2,64.1,28.79,ENE,74,0.0,7.6,81,0.00,,,0.00,VWS V14.01,2013-06-23 15:49:00,
2013-06-23 10:54:00,70.2,64.1,28.79,ESE,115,2.7,8.1,81,0.00,,,0.00,VWS V14.01,2013-06-23 15:54:00,
2013-06-23 10:59:00,70.0,63.5,28.79,SSE,151,0.0,0.0,80,0.00,,,0.00,VWS V14.01,2013-06-23 15:59:00,
2013-06-23 11:04:00,70.0,63.5,28.73,ESE,111,2.7,2.7,80,0.00,,,0.00,VWS V14.01,2013-06-23 16:04:00,
2013-06-23 11:09:00,69.8,63.0,28.73,ENE,65,9.6,11.9,79,0.00,,,0.00,VWS V14.01,2013-06-23 16:09:00,
2013-06-23 11:14:00,69.8,63.0,28.73,East,87,3.6,7.2,79,0.00,,,0.00,VWS V14.01,2013-06-23 16:14:00,
2013-06-23 11:19:00,69.6,62.8,28.70,South,187,0.0,0.0,79,0.00,,,0.00,VWS V14.01,2013-06-23 16:19:00,
2013-06-23 11:24:00,69.6,62.8,28.70,ENE,69,0.0,2.2,79,0.00,,,0.00,VWS V14.01,2013-06-23 16:24:00,
2013-06-23 11:30:00,69.6,62.5,28.70,NW,309,0.0,0.0,78,0.00,,,0.00,VWS V14.01,2013-06-23 16:30:00,
2013-06-23 11:35:00,69.6,62.5,28.73,ENE,57,0.0,0.0,78,0.00,,,0.00,VWS V14.01,2013-06-23 16:35:00,
2013-06-23 11:40:00,70.0,63.2,28.73,ESE,115,0.0,0.0,79,0.00,,,0.00,VWS V14.01,2013-06-23 16:40:00,
2013-06-23 11:45:00,70.3,63.5,28.73,ENE,62,0.0,0.0,79,0.00,,,0.00,VWS V14.01,2013-06-23 16:45:00,
2013-06-23 11:50:00,70.5,63.3,28.73,ESE,105,2.7,2.7,78,0.00,,,0.00,VWS V14.01,2013-06-23 16:50:00,
2013-06-23 11:55:00,70.7,63.5,28.73,East,97,0.0,0.0,78,0.00,,,0.00,VWS V14.01,2013-06-23 16:55:00,
2013-06-23 11:57:00,70.9,63.7,28.73,ENE,68,0.0,0.0,78,0.00,,,0.00,VWS V14.01,2013-06-23 16:57:00,
2013-06-23 11:58:00,70.9,63.7,28.73,NE,55,0.0,0.0,78,0.00,,,0.00,VWS V14.01,2013-06-23 16:58:00,
2013-06-23 12:03:00,71.2,63.7,28.76,ESE,116,3.6,3.6,77,0.00,,OVC180,0.00,VWS V14.01,2013-06-23 17:03:00,
2013-06-23 12:08:00,71.6,63.6,28.76,NE,38,0.0,2.2,76,0.00,,OVC180,0.00,VWS V14.01,2013-06-23 17:08:00,
2013-06-23 12:13:00,72.0,64.0,28.76,ESE,112,0.0,4.0,76,0.00,,OVC180,0.00,VWS V14.01,2013-06-23 17:13:00,
2013-06-23 12:18:00,72.1,63.8,28.76,ENE,65,0.0,0.0,75,0.00,,OVC180,0.00,VWS V14.01,2013-06-23 17:18:00,
2013-06-23 12:23:00,72.3,64.0,28.76,ENE,73,0.0,0.0,75,0.00,,OVC180,0.00,VWS V14.01,2013-06-23 17:23:00,
2013-06-23 12:29:00,72.7,63.9,28.76,SE,126,0.0,0.0,74,0.00,,OVC180,0.00,VWS V14.01,2013-06-23 17:29:00,
2013-06-23 12:34:00,72.9,64.1,28.79,SSE,154,0.0,0.0,74,0.00,,OVC180,0.00,VWS V14.01,2013-06-23 17:34:00,
2013-06-23 12:39:00,73.2,64.8,28.79,West,262,0.0,0.0,75,0.00,,OVC180,0.00,VWS V14.01,2013-06-23 17:39:00,
2013-06-23 12:44:00,73.4,65.0,28.79,West,265,0.0,0.0,75,0.00,,OVC180,0.00,VWS V14.01,2013-06-23 17:44:00,
2013-06-23 12:49:00,73.6,64.4,28.79,West,265,0.0,0.0,73,0.00,,OVC180,0.00,VWS V14.01,2013-06-23 17:49:00,
2013-06-23 12:54:00,73.8,64.2,28.79,NE,49,0.0,0.0,72,0.00,,OVC180,0.00,VWS V14.01,2013-06-23 17:54:00,
2013-06-23 12:59:00,73.8,64.2,28.79,ENE,69,0.0,0.0,72,0.00,,OVC180,0.00,VWS V14.01,2013-06-23 17:59:00,
2013-06-23 13:04:00,74.3,64.3,28.76,East,82,0.0,0.0,71,0.00,,OVC180,0.00,VWS V14.01,2013-06-23 18:04:00,
2013-06-23 13:09:00,74.5,64.1,28.76,NE,45,0.0,0.0,70,0.00,,OVC180,0.00,VWS V14.01,2013-06-23 18:09:00,
2013-06-23 13:14:00,74.5,64.1,28.76,NNE,20,0.0,0.0,70,0.00,,OVC180,0.00,VWS V14.01,2013-06-23 18:14:00,
2013-06-23 13:19:00,74.7,63.4,28.79,ENE,57,0.0,0.0,68,0.00,,OVC180,0.00,VWS V14.01,2013-06-23 18:19:00,
2013-06-23 13:24:00,75.0,64.6,28.79,SSE,157,0.0,0.0,70,0.00,,OVC180,0.00,VWS V14.01,2013-06-23 18:24:00,
2013-06-23 13:29:00,75.6,64.7,28.79,SSE,155,0.0,0.0,69,0.00,,OVC180,0.00,VWS V14.01,2013-06-23 18:29:00,
2013-06-23 13:34:00,75.7,64.4,28.79,ENE,76,0.0,0.0,68,0.00,,OVC180,0.00,VWS V14.01,2013-06-23 18:34:00,
2013-06-23 13:39:00,76.1,65.2,28.79,SW,226,0.0,0.0,69,0.00,,OVC180,0.00,VWS V14.01,2013-06-23 18:39:00,
2013-06-23 13:44:00,76.5,66.0,28.79,ESE,105,0.0,0.0,70,0.00,,OVC180,0.00,VWS V14.01,2013-06-23 18:44:00,
2013-06-23 13:49:00,76.8,65.5,28.79,SSE,155,0.0,0.0,68,0.00,,OVC180,0.00,VWS V14.01,2013-06-23 18:49:00,
2013-06-23 13:54:00,76.8,65.5,28.79,SSW,198,0.0,0.0,68,0.00,,OVC180,0.00,VWS V14.01,2013-06-23 18:54:00,
2013-06-23 13:59:00,77.0,66.1,28.79,SSW,197,0.0,0.0,69,0.00,,OVC180,0.00,VWS V14.01,2013-06-23 18:59:00,
2013-06-23 14:05:00,77.0,65.2,28.79,South,181,0.0,0.0,67,0.00,,OVC300,0.00,VWS V14.01,2013-06-23 19:05:00,
2013-06-23 14:10:00,77.2,66.2,28.79,SSW,211,0.0,0.0,69,0.00,,OVC300,0.00,VWS V14.01,2013-06-23 19:10:00,
2013-06-23 14:15:00,77.4,66.4,28.79,SW,229,0.0,0.0,69,0.00,,OVC300,0.00,VWS V14.01,2013-06-23 19:15:00,
2013-06-23 14:20:00,77.7,66.8,28.82,SW,235,0.0,0.0,69,0.00,,OVC300,0.00,VWS V14.01,2013-06-23 19:20:00,
2013-06-23 14:25:00,77.9,66.1,28.82,SW,215,0.0,0.0,67,0.00,,OVC300,0.00,VWS V14.01,2013-06-23 19:25:00,
2013-06-23 14:30:00,77.9,66.1,28.82,ESE,123,0.0,0.0,67,0.00,,OVC300,0.00,VWS V14.01,2013-06-23 19:30:00,
2013-06-23 14:35:00,78.1,66.2,28.82,SSE,152,0.0,0.0,67,0.00,,OVC300,0.00,VWS V14.01,2013-06-23 19:35:00,
2013-06-23 14:40:00,78.3,66.4,28.82,East,83,0.0,0.0,67,0.00,,OVC300,0.00,VWS V14.01,2013-06-23 19:40:00,
2013-06-23 14:45:00,78.3,66.4,28.82,WSW,256,0.0,2.7,67,0.00,,OVC300,0.00,VWS V14.01,2013-06-23 19:45:00,
2013-06-23 14:50:00,78.6,66.8,28.82,SSE,156,0.0,0.0,67,0.00,,OVC300,0.00,VWS V14.01,2013-06-23 19:50:00,
2013-06-23 14:55:00,78.6,66.8,28.82,SSW,195,0.0,0.0,67,0.00,,OVC300,0.00,VWS V14.01,2013-06-23 19:55:00,
2013-06-23 15:00:00,78.6,66.8,28.82,South,190,0.0,0.0,67,0.00,,OVC300,0.00,VWS V14.01,2013-06-23 20:00:00,
2013-06-23 15:05:00,78.6,66.3,28.82,SE,129,0.0,0.0,66,0.00,,OVC300,0.00,VWS V14.01,2013-06-23 20:05:00,
2013-06-23 15:10:00,78.8,66.5,28.82,South,171,0.0,0.0,66,0.00,,OVC300,0.00,VWS V14.01,2013-06-23 20:10:00,
2013-06-23 15:15:00,79.0,66.7,28.82,SSE,167,0.0,0.0,66,0.00,,OVC300,0.00,VWS V14.01,2013-06-23 20:15:00,
2013-06-23 15:20:00,79.2,66.8,28.79,SSW,194,0.0,0.0,66,0.00,,OVC300,0.00,VWS V14.01,2013-06-23 20:20:00,
2013-06-23 15:25:00,79.3,67.0,28.79,SSE,162,0.0,0.0,66,0.00,,OVC300,0.00,VWS V14.01,2013-06-23 20:25:00,
2013-06-23 15:30:00,79.3,66.6,28.79,SSW,205,0.0,0.0,65,0.00,,OVC300,0.00,VWS V14.01,2013-06-23 20:30:00,
2013-06-23 15:35:00,79.2,65.9,28.79,South,170,0.0,2.7,64,0.00,,OVC300,0.00,VWS V14.01,2013-06-23 20:35:00,
2013-06-23 15:40:00,79.3,66.6,28.79,SSW,206,0.0,0.0,65,0.00,,OVC300,0.00,VWS V14.01,2013-06-23 20:40:00,
2013-06-23 15:46:00,79.3,66.1,28.82,SSW,199,0.0,2.7,64,0.00,,OVC300,0.00,VWS V14.01,2013-06-23 20:46:00,
2013-06-23 15:51:00,79.3,66.1,28.82,South,183,0.0,2.7,64,0.00,,OVC300,0.00,VWS V14.01,2013-06-23 20:51:00,
2013-06-23 15:56:00,79.3,66.1,28.82,South,175,0.0,0.0,64,0.00,,OVC300,0.00,VWS V14.01,2013-06-23 20:56:00,
2013-06-23 16:01:00,79.2,66.4,28.82,South,182,0.0,3.1,65,0.00,,OVC300,0.00,VWS V14.01,2013-06-23 21:01:00,
2013-06-23 16:06:00,79.2,66.8,28.82,South,179,0.0,0.0,66,0.00,,OVC300,0.00,VWS V14.01,2013-06-23 21:06:00,
2013-06-23 16:11:00,79.3,67.0,28.82,South,173,0.0,0.0,66,0.00,,OVC300,0.00,VWS V14.01,2013-06-23 21:11:00,
2013-06-23 16:16:00,79.3,67.0,28.82,South,176,0.0,0.0,66,0.00,,OVC300,0.00,VWS V14.01,2013-06-23 21:16:00,
2013-06-23 16:21:00,79.5,67.6,28.82,South,191,0.0,0.0,67,0.00,,OVC300,0.00,VWS V14.01,2013-06-23 21:21:00,
2013-06-23 16:26:00,79.3,67.0,28.82,South,184,0.0,0.0,66,0.00,,OVC300,0.00,VWS V14.01,2013-06-23 21:26:00,
2013-06-23 16:31:00,79.5,67.6,28.82,SSE,161,0.0,0.0,67,0.00,,OVC300,0.00,VWS V14.01,2013-06-23 21:31:00,
2013-06-23 16:36:00,79.7,67.8,28.82,South,180,0.0,0.0,67,0.00,,OVC300,0.00,VWS V14.01,2013-06-23 21:36:00,
2013-06-23 16:41:00,79.9,67.9,28.82,SSE,157,0.0,0.0,67,0.00,,OVC300,0.00,VWS V14.01,2013-06-23 21:41:00,
2013-06-23 16:46:00,80.1,68.1,28.82,South,186,0.0,0.0,67,0.00,,OVC300,0.00,VWS V14.01,2013-06-23 21:46:00,
2013-06-23 16:51:00,80.4,68.5,28.82,SSE,152,0.0,0.0,67,0.00,,OVC300,0.00,VWS V14.01,2013-06-23 21:51:00,
2013-06-23 16:56:00,80.4,68.0,28.82,SSE,152,0.0,0.0,66,0.00,,OVC300,0.00,VWS V14.01,2013-06-23 21:56:00,
2013-06-23 17:01:00,80.6,68.2,28.79,SSE,161,0.0,0.0,66,0.00,,OVC300,0.00,VWS V14.01,2013-06-23 22:01:00,
2013-06-23 17:06:00,80.8,68.4,28.79,South,183,0.0,0.0,66,0.00,,OVC300,0.00,VWS V14.01,2013-06-23 22:06:00,
2013-06-23 17:12:00,81.0,69.0,28.79,South,187,0.0,0.0,67,0.00,,OVC300,0.00,VWS V14.01,2013-06-23 22:12:00,
2013-06-23 17:17:00,81.1,68.7,28.79,SE,124,0.0,0.0,66,0.00,,OVC300,0.00,VWS V14.01,2013-06-23 22:17:00,
2013-06-23 17:22:00,81.1,67.8,28.79,South,172,0.0,0.0,64,0.00,,OVC300,0.00,VWS V14.01,2013-06-23 22:22:00,
2013-06-23 17:27:00,81.1,67.8,28.79,East,95,0.0,0.0,64,0.00,,OVC300,0.00,VWS V14.01,2013-06-23 22:27:00,
2013-06-23 17:32:00,81.1,67.8,28.79,ESE,123,0.0,0.0,64,0.00,,OVC300,0.00,VWS V14.01,2013-06-23 22:32:00,
2013-06-23 17:37:00,81.1,67.4,28.79,SSE,159,2.7,2.7,63,0.00,,OVC300,0.00,VWS V14.01,2013-06-23 22:37:00,
2013-06-23 17:42:00,81.0,66.7,28.79,ESE,123,0.0,0.0,62,0.00,,OVC300,0.00,VWS V14.01,2013-06-23 22:42:00,
2013-06-23 17:47:00,80.8,65.6,28.79,ESE,122,0.0,0.0,60,0.00,,OVC300,0.00,VWS V14.01,2013-06-23 22:47:00,
2013-06-23 17:52:00,80.6,65.9,28.79,ESE,114,0.0,0.0,61,0.00,,OVC300,0.00,VWS V14.01,2013-06-23 22:52:00,
2013-06-23 17:57:00,80.6,65.9,28.79,NE,54,0.0,2.7,61,0.00,,OVC300,0.00,VWS V14.01,2013-06-23 22:57:00,
2013-06-23 18:02:00,80.4,66.2,28.79,SE,143,0.0,0.0,62,0.00,,OVC300,0.00,VWS V14.01,2013-06-23 23:02:00,
2013-06-23 18:07:00,80.6,66.4,28.79,SSE,160,0.0,0.0,62,0.00,,OVC300,0.00,VWS V14.01,2013-06-23 23:07:00,
2013-06-23 18:12:00,80.4,66.7,28.79,SE,124,0.0,0.0,63,0.00,,OVC300,0.00,VWS V14.01,2013-06-23 23:12:00,
2013-06-23 18:17:00,80.6,66.8,28.79,South,178,0.0,0.0,63,0.00,,OVC300,0.00,VWS V14.01,2013-06-23 23:17:00,
2013-06-23 18:22:00,80.6,67.3,28.79,SSE,164,0.0,0.0,64,0.00,,OVC300,0.00,VWS V14.01,2013-06-23 23:22:00,
2013-06-23 18:27:00,80.6,66.8,28.79,SE,143,0.0,0.0,63,0.00,,OVC300,0.00,VWS V14.01,2013-06-23 23:27:00,
2013-06-23 18:32:00,80.4,67.1,28.79,ESE,114,0.0,0.0,64,0.00,,OVC300,0.00,VWS V14.01,2013-06-23 23:32:00,
2013-06-23 18:37:00,80.4,67.6,28.79,South,178,0.0,0.0,65,0.00,,OVC300,0.00,VWS V14.01,2013-06-23 23:37:00,
2013-06-23 18:43:00,80.4,68.0,28.79,South,185,0.0,0.0,66,0.00,,OVC300,0.00,VWS V14.01,2013-06-23 23:43:00,
2013-06-23 18:48:00,80.4,68.0,28.79,ESE,123,0.0,0.0,66,0.00,,OVC300,0.00,VWS V14.01,2013-06-23 23:48:00,
2013-06-23 18:53:00,80.2,67.9,28.79,South,175,0.0,0.0,66,0.00,,OVC300,0.00,VWS V14.01,2013-06-23 23:53:00,
2013-06-23 18:58:00,80.2,67.9,28.79,South,182,0.0,0.0,66,0.00,,OVC300,0.00,VWS V14.01,2013-06-23 23:58:00,
2013-06-23 19:03:00,80.2,67.9,28.79,SE,138,0.0,0.0,66,0.00,,OVC300,0.00,VWS V14.01,2013-06-24 00:03:00,
2013-06-23 19:08:00,80.2,68.3,28.79,ESE,117,0.0,0.0,67,0.00,,OVC300,0.00,VWS V14.01,2013-06-24 00:08:00,
2013-06-23 19:13:00,80.2,68.3,28.79,SSE,150,0.0,0.0,67,0.00,,OVC300,0.00,VWS V14.01,2013-06-24 00:13:00,
2013-06-23 19:18:00,80.2,68.3,28.79,SE,143,0.0,0.0,67,0.00,,OVC300,0.00,VWS V14.01,2013-06-24 00:18:00,
2013-06-23 19:23:00,80.2,68.7,28.79,SE,132,0.0,0.0,68,0.00,,OVC300,0.00,VWS V14.01,2013-06-24 00:23:00,
2013-06-23 19:28:00,80.2,69.2,28.79,ESE,113,0.0,0.0,69,0.00,,OVC300,0.00,VWS V14.01,2013-06-24 00:28:00,
2013-06-23 19:33:00,80.1,69.0,28.79,ESE,110,0.0,0.0,69,0.00,,OVC300,0.00,VWS V14.01,2013-06-24 00:33:00,
2013-06-23 19:38:00,79.7,68.6,28.79,SE,130,0.0,0.0,69,0.00,,OVC300,0.00,VWS V14.01,2013-06-24 00:38:00,
2013-06-23 19:43:00,79.5,68.9,28.79,SE,130,0.0,0.0,70,0.00,,OVC300,0.00,VWS V14.01,2013-06-24 00:43:00,
2013-06-23 19:48:00,79.2,68.9,28.79,SE,130,0.0,0.0,71,0.00,,OVC300,0.00,VWS V14.01,2013-06-24 00:48:00,
2013-06-23 19:53:00,79.2,68.9,28.79,SE,130,0.0,0.0,71,0.00,,OVC300,0.00,VWS V14.01,2013-06-24 00:53:00,
2013-06-23 19:58:00,79.2,68.9,28.79,SE,130,0.0,0.0,71,0.00,,OVC300,0.00,VWS V14.01,2013-06-24 00:58:00,
2013-06-23 20:03:00,79.0,69.2,28.79,SE,130,0.0,0.0,72,0.00,,OVC250,0.00,VWS V14.01,2013-06-24 01:03:00,
2013-06-23 20:09:00,78.8,69.4,28.79,ESE,105,0.0,0.0,73,0.00,,OVC250,0.00,VWS V14.01,2013-06-24 01:09:00,
2013-06-23 20:14:00,78.8,69.4,28.79,ESE,105,0.0,0.0,73,0.00,,OVC250,0.00,VWS V14.01,2013-06-24 01:14:00,
2013-06-23 20:19:00,78.8,69.4,28.79,ESE,105,0.0,0.0,73,0.00,,OVC250,0.00,VWS V14.01,2013-06-24 01:19:00,
2013-06-23 20:24:00,78.6,69.2,28.79,ESE,105,0.0,0.0,73,0.00,,OVC250,0.00,VWS V14.01,2013-06-24 01:24:00,
2013-06-23 20:29:00,78.6,69.2,28.79,ESE,105,0.0,0.0,73,0.00,,OVC250,0.00,VWS V14.01,2013-06-24 01:29:00,
2013-06-23 20:34:00,78.6,69.7,28.82,East,87,0.0,0.0,74,0.00,,OVC250,0.00,VWS V14.01,2013-06-24 01:34:00,
2013-06-23 20:39:00,78.3,69.3,28.82,East,87,0.0,0.0,74,0.00,,OVC250,0.00,VWS V14.01,2013-06-24 01:39:00,
2013-06-23 20:44:00,78.3,69.3,28.82,East,87,0.0,0.0,74,0.00,,OVC250,0.00,VWS V14.01,2013-06-24 01:44:00,
2013-06-23 20:49:00,78.3,69.3,28.82,East,87,0.0,0.0,74,0.00,,OVC250,0.00,VWS V14.01,2013-06-24 01:49:00,
2013-06-23 20:54:00,78.3,69.3,28.82,East,87,0.0,0.0,74,0.00,,OVC250,0.00,VWS V14.01,2013-06-24 01:54:00,
2013-06-23 20:59:00,77.9,69.3,28.82,East,87,0.0,0.0,75,0.00,,OVC250,0.00,VWS V14.01,2013-06-24 01:59:00,
2013-06-23 21:04:00,77.9,69.3,28.82,East,87,0.0,0.0,75,0.00,,OVC250,0.00,VWS V14.01,2013-06-24 02:04:00,
2013-06-23 21:09:00,77.9,69.3,28.82,ENE,73,0.0,0.0,75,0.00,,OVC250,0.00,VWS V14.01,2013-06-24 02:09:00,
2013-06-23 21:14:00,77.9,69.3,28.82,ENE,73,0.0,0.0,75,0.00,,OVC250,0.00,VWS V14.01,2013-06-24 02:14:00,
2013-06-23 21:19:00,77.7,69.2,28.82,ENE,77,0.0,0.0,75,0.00,,OVC250,0.00,VWS V14.01,2013-06-24 02:19:00,
2013-06-23 21:24:00,77.7,69.2,28.82,ENE,76,0.0,0.0,75,0.00,,OVC250,0.00,VWS V14.01,2013-06-24 02:24:00,
2013-06-23 21:29:00,77.7,69.6,28.82,ENE,76,0.0,0.0,76,0.00,,OVC250,0.00,VWS V14.01,2013-06-24 02:29:00,
2013-06-23 21:34:00,77.5,69.4,28.82,ENE,76,0.0,0.0,76,0.00,,OVC250,0.00,VWS V14.01,2013-06-24 02:34:00,
2013-06-23 21:39:00,77.5,69.8,28.82,ENE,76,0.0,0.0,77,0.00,,OVC250,0.00,VWS V14.01,2013-06-24 02:39:00,
2013-06-23 21:44:00,77.2,69.8,28.82,ENE,76,0.0,0.0,78,0.00,,OVC250,0.00,VWS V14.01,2013-06-24 02:44:00,
2013-06-23 21:49:00,77.0,70.0,28.82,ENE,76,0.0,0.0,79,0.00,,OVC250,0.00,VWS V14.01,2013-06-24 02:49:00,
2013-06-23 21:54:00,76.5,69.8,28.82,ENE,76,0.0,0.0,80,0.00,,OVC250,0.00,VWS V14.01,2013-06-24 02:54:00,
2013-06-23 21:59:00,76.1,69.8,28.82,ENE,76,0.0,0.0,81,0.00,,OVC250,0.00,VWS V14.01,2013-06-24 02:59:00,
2013-06-23 22:04:00,75.9,70.0,28.85,ENE,76,0.0,0.0,82,0.00,,,0.00,VWS V14.01,2013-06-24 03:04:00,
2013-06-23 22:10:00,75.9,70.4,28.85,ENE,76,0.0,0.0,83,0.00,,,0.00,VWS V14.01,2013-06-24 03:10:00,
2013-06-23 22:15:00,75.7,70.2,28.85,North,2,0.0,0.0,83,0.00,,,0.00,VWS V14.01,2013-06-24 03:15:00,
2013-06-23 22:20:00,75.6,70.4,28.85,ENE,69,0.0,0.0,84,0.00,,,0.00,VWS V14.01,2013-06-24 03:20:00,
2013-06-23 22:25:00,75.7,70.6,28.85,ENE,64,0.0,0.0,84,0.00,,,0.00,VWS V14.01,2013-06-24 03:25:00,
2013-06-23 22:30:00,75.7,70.6,28.85,ENE,68,0.0,0.0,84,0.00,,,0.00,VWS V14.01,2013-06-24 03:30:00,
2013-06-23 22:35:00,75.9,70.7,28.85,ENE,68,0.0,0.0,84,0.00,,,0.00,VWS V14.01,2013-06-24 03:35:00,
2013-06-23 22:40:00,75.4,70.2,28.85,ENE,72,0.0,0.0,84,0.00,,,0.00,VWS V14.01,2013-06-24 03:40:00,
2013-06-23 22:45:00,75.2,70.0,28.85,ENE,72,0.0,0.0,84,0.00,,,0.00,VWS V14.01,2013-06-24 03:45:00,
2013-06-23 22:50:00,74.8,70.0,28.85,ENE,72,0.0,0.0,85,0.00,,,0.00,VWS V14.01,2013-06-24 03:50:00,
2013-06-23 22:55:00,74.8,70.0,28.85,ENE,72,0.0,0.0,85,0.00,,,0.00,VWS V14.01,2013-06-24 03:55:00,
2013-06-23 23:00:00,74.8,70.4,28.85,NE,43,0.0,0.0,86,0.00,,,0.00,VWS V14.01,2013-06-24 04:00:00,
2013-06-23 23:01:00,74.8,70.4,28.85,NE,38,0.0,0.0,86,0.00,,,0.00,VWS V14.01,2013-06-24 04:01:00,
2013-06-23 23:02:00,74.8,70.4,28.85,NE,38,0.0,0.0,86,0.00,,,0.00,VWS V14.01,2013-06-24 04:02:00,
2013-06-23 23:07:00,74.8,70.4,28.85,East,86,0.0,0.0,86,0.00,,,0.00,VWS V14.01,2013-06-24 04:07:00,
2013-06-23 23:12:00,74.8,70.7,28.85,ENE,66,0.0,0.0,87,0.00,,,0.00,VWS V14.01,2013-06-24 04:12:00,
2013-06-23 23:17:00,74.8,70.4,28.85,East,93,0.0,0.0,86,0.00,,,0.00,VWS V14.01,2013-06-24 04:17:00,
2013-06-23 23:23:00,74.7,69.9,28.85,NE,46,0.0,0.0,85,0.00,,,0.00,VWS V14.01,2013-06-24 04:23:00,
2013-06-23 23:28:00,74.5,69.3,28.85,ESE,114,0.0,0.0,84,0.00,,,0.00,VWS V14.01,2013-06-24 04:28:00,
2013-06-23 23:33:00,74.5,69.7,28.85,ENE,78,0.0,0.0,85,0.00,,,0.00,VWS V14.01,2013-06-24 04:33:00,
2013-06-23 23:38:00,74.3,69.5,28.85,East,92,0.0,0.0,85,0.00,,,0.00,VWS V14.01,2013-06-24 04:38:00,
2013-06-23 23:43:00,74.3,69.5,28.85,ESE,116,0.0,0.0,85,0.00,,,0.00,VWS V14.01,2013-06-24 04:43:00,
2013-06-23 23:48:00,74.3,69.5,28.82,SSE,149,0.0,0.0,85,0.00,,,0.00,VWS V14.01,2013-06-24 04:48:00,
2013-06-23 23:53:00,74.1,69.3,28.82,SW,221,0.0,0.0,85,0.00,,,0.00,VWS V14.01,2013-06-24 04:53:00,
2013-06-23 23:58:00,74.1,69.3,28.82,WNW,288,0.0,0.0,85,0.00,,,0.00,VWS V14.01,2013-06-24 04:58:00,